Multibeam Report for MV1101


Ship Name: Melville
Chief Scientist: Balch, William
Bigelow Laboratory for Ocean Sciences
Source Organization: Rolling Deck to Repository
Start Date: 2011-01-11
End Date: 2011-02-16


View ISO Metadata

Visit the full NCEI Bathymetry Viewer


Multibeam Bathymetry

Cruise Details

Project: The Great Southern Coccolithophore Belt
Instrument: Kongsberg EM122

Data Quality

Number of Files: 1710
Number of Records: 652382
BATHYMETRY DATA Quantity Percentage
Number of Beams 281829024 100%
Number of Good Beams 183296037 65.04%
Number of Zero Beams 187714 0.07%
Number of Flagged Beams 98345273 34.9%
AMPLITUDE DATA Quantity Percentage
Number of Beams 281829024 100%
Number of Good Beams 183296037 65.04%
Number of Zero Beams 187714 0.07%
Number of Flagged Beams 98345273 34.9%
SIDESCAN DATA Quantity Percentage
Number of Pixels 668039168 100%
Number of Good Pixels 406300301 60.82%
Number of Zero Pixels 0 0%
Number of Flagged Pixels 261738867 39.18%

Navigation Totals

Total Time: 832.5703 hours
Total Track Length: 11490.3904 km
Average Speed: 13.801 km/hr (7.4519 knots)

Cruise Bounds

Northern Extent: -33.864277
Southern Extent: -60.0193
Western Extent: -70.837944
Eastern Extent: 18.429678

Limits

Minimum Sonar Depth 0.7974 Maximum Sonar Depth 9.1548
Minimum Altitude 20.9705 Maximum Altitude 8656.4355
Minimum Depth 12.7561 Maximum Depth 9159.5459
Minimum Amplitude 0 Maximum Amplitude 39.4
Minimum Sidescan 0 Maximum Sidescan 55.7

File Information

Full Resolution Bathymetry as collected (raw): 1706

Files File Size Description
0000_20110111_163112_melville.all.mb58.gz 0.67MB Kongsberg multibeam vendor format
0001_20110111_163201_melville.all.mb58.gz 3.45MB Kongsberg multibeam vendor format
0002_20110111_163556_melville.all.mb58.gz 3.26MB Kongsberg multibeam vendor format
0003_20110111_163902_melville.all.mb58.gz 31.10MB Kongsberg multibeam vendor format
0004_20110111_170855_melville.all.mb58.gz 1.33MB Kongsberg multibeam vendor format
0007_20110111_181554_melville.all.mb58.gz 30.54MB Kongsberg multibeam vendor format
0008_20110111_184543_melville.all.mb58.gz 30.46MB Kongsberg multibeam vendor format
0009_20110111_191539_melville.all.mb58.gz 157.31MB Kongsberg multibeam vendor format
0010_20110111_194533_melville.all.mb58.gz 170.79MB Kongsberg multibeam vendor format
0011_20110111_201533_melville.all.mb58.gz 168.00MB Kongsberg multibeam vendor format
0012_20110111_204533_melville.all.mb58.gz 133.23MB Kongsberg multibeam vendor format
0013_20110111_211533_melville.all.mb58.gz 146.56MB Kongsberg multibeam vendor format
0014_20110111_214533_melville.all.mb58.gz 142.92MB Kongsberg multibeam vendor format
0015_20110111_221533_melville.all.mb58.gz 147.46MB Kongsberg multibeam vendor format
0016_20110111_224533_melville.all.mb58.gz 154.43MB Kongsberg multibeam vendor format
0017_20110111_231533_melville.all.mb58.gz 152.07MB Kongsberg multibeam vendor format
0018_20110111_234533_melville.all.mb58.gz 78.29MB Kongsberg multibeam vendor format
0019_20110112_001535_melville.all.mb58.gz 30.62MB Kongsberg multibeam vendor format
0020_20110112_004540_melville.all.mb58.gz 30.62MB Kongsberg multibeam vendor format
0021_20110112_011546_melville.all.mb58.gz 30.38MB Kongsberg multibeam vendor format
0022_20110112_014538_melville.all.mb58.gz 59.88MB Kongsberg multibeam vendor format
0023_20110112_021532_melville.all.mb58.gz 155.08MB Kongsberg multibeam vendor format
0024_20110112_024533_melville.all.mb58.gz 152.75MB Kongsberg multibeam vendor format
0025_20110112_031533_melville.all.mb58.gz 148.83MB Kongsberg multibeam vendor format
0026_20110112_034532_melville.all.mb58.gz 156.17MB Kongsberg multibeam vendor format
0027_20110112_041532_melville.all.mb58.gz 133.46MB Kongsberg multibeam vendor format
0028_20110112_044532_melville.all.mb58.gz 165.53MB Kongsberg multibeam vendor format
0029_20110112_051533_melville.all.mb58.gz 148.20MB Kongsberg multibeam vendor format
0030_20110112_054532_melville.all.mb58.gz 145.06MB Kongsberg multibeam vendor format
0031_20110112_061532_melville.all.mb58.gz 141.38MB Kongsberg multibeam vendor format
0032_20110112_064532_melville.all.mb58.gz 137.92MB Kongsberg multibeam vendor format
0033_20110112_071532_melville.all.mb58.gz 136.29MB Kongsberg multibeam vendor format
0034_20110112_074533_melville.all.mb58.gz 132.51MB Kongsberg multibeam vendor format
0035_20110112_081533_melville.all.mb58.gz 128.98MB Kongsberg multibeam vendor format
0036_20110112_084532_melville.all.mb58.gz 127.52MB Kongsberg multibeam vendor format
0037_20110112_091533_melville.all.mb58.gz 124.93MB Kongsberg multibeam vendor format
0038_20110112_094532_melville.all.mb58.gz 121.87MB Kongsberg multibeam vendor format
0039_20110112_101532_melville.all.mb58.gz 122.05MB Kongsberg multibeam vendor format
0040_20110112_104533_melville.all.mb58.gz 120.71MB Kongsberg multibeam vendor format
0041_20110112_111533_melville.all.mb58.gz 119.13MB Kongsberg multibeam vendor format
0042_20110112_114533_melville.all.mb58.gz 118.13MB Kongsberg multibeam vendor format
0043_20110112_121533_melville.all.mb58.gz 115.07MB Kongsberg multibeam vendor format
0044_20110112_124532_melville.all.mb58.gz 114.72MB Kongsberg multibeam vendor format
0045_20110112_131533_melville.all.mb58.gz 112.21MB Kongsberg multibeam vendor format
0046_20110112_134532_melville.all.mb58.gz 106.94MB Kongsberg multibeam vendor format
0047_20110112_141533_melville.all.mb58.gz 98.45MB Kongsberg multibeam vendor format
0048_20110112_144533_melville.all.mb58.gz 91.77MB Kongsberg multibeam vendor format
0049_20110112_151533_melville.all.mb58.gz 86.68MB Kongsberg multibeam vendor format
0050_20110112_154532_melville.all.mb58.gz 83.49MB Kongsberg multibeam vendor format
0051_20110112_161533_melville.all.mb58.gz 81.09MB Kongsberg multibeam vendor format
0052_20110112_164533_melville.all.mb58.gz 79.30MB Kongsberg multibeam vendor format
0053_20110112_171534_melville.all.mb58.gz 77.97MB Kongsberg multibeam vendor format
0054_20110112_174534_melville.all.mb58.gz 77.35MB Kongsberg multibeam vendor format
0055_20110112_181533_melville.all.mb58.gz 77.77MB Kongsberg multibeam vendor format
0056_20110112_184533_melville.all.mb58.gz 77.21MB Kongsberg multibeam vendor format
0057_20110112_191534_melville.all.mb58.gz 77.01MB Kongsberg multibeam vendor format
0058_20110112_194534_melville.all.mb58.gz 76.93MB Kongsberg multibeam vendor format
0059_20110112_201532_melville.all.mb58.gz 77.13MB Kongsberg multibeam vendor format
0060_20110112_204532_melville.all.mb58.gz 76.52MB Kongsberg multibeam vendor format
0061_20110112_211532_melville.all.mb58.gz 74.99MB Kongsberg multibeam vendor format
0062_20110112_214534_melville.all.mb58.gz 73.37MB Kongsberg multibeam vendor format
0063_20110112_221533_melville.all.mb58.gz 72.40MB Kongsberg multibeam vendor format
0064_20110112_224532_melville.all.mb58.gz 71.89MB Kongsberg multibeam vendor format
0065_20110112_231533_melville.all.mb58.gz 71.64MB Kongsberg multibeam vendor format
0066_20110112_234535_melville.all.mb58.gz 70.41MB Kongsberg multibeam vendor format
0067_20110113_001532_melville.all.mb58.gz 71.00MB Kongsberg multibeam vendor format
0068_20110113_004533_melville.all.mb58.gz 70.28MB Kongsberg multibeam vendor format
0069_20110113_011532_melville.all.mb58.gz 71.15MB Kongsberg multibeam vendor format
0070_20110113_014534_melville.all.mb58.gz 70.78MB Kongsberg multibeam vendor format
0071_20110113_021533_melville.all.mb58.gz 70.13MB Kongsberg multibeam vendor format
0072_20110113_024533_melville.all.mb58.gz 69.56MB Kongsberg multibeam vendor format
0073_20110113_031534_melville.all.mb58.gz 68.47MB Kongsberg multibeam vendor format
0074_20110113_034532_melville.all.mb58.gz 66.70MB Kongsberg multibeam vendor format
0075_20110113_041533_melville.all.mb58.gz 64.10MB Kongsberg multibeam vendor format
0076_20110113_044533_melville.all.mb58.gz 63.30MB Kongsberg multibeam vendor format
0077_20110113_051535_melville.all.mb58.gz 60.79MB Kongsberg multibeam vendor format
0078_20110113_054540_melville.all.mb58.gz 61.04MB Kongsberg multibeam vendor format
0079_20110113_061537_melville.all.mb58.gz 62.14MB Kongsberg multibeam vendor format
0080_20110113_064532_melville.all.mb58.gz 62.36MB Kongsberg multibeam vendor format
0081_20110113_071536_melville.all.mb58.gz 62.15MB Kongsberg multibeam vendor format
0082_20110113_074536_melville.all.mb58.gz 61.31MB Kongsberg multibeam vendor format
0083_20110113_081537_melville.all.mb58.gz 61.61MB Kongsberg multibeam vendor format
0084_20110113_084537_melville.all.mb58.gz 61.66MB Kongsberg multibeam vendor format
0085_20110113_091534_melville.all.mb58.gz 61.77MB Kongsberg multibeam vendor format
0086_20110113_094535_melville.all.mb58.gz 57.76MB Kongsberg multibeam vendor format
0087_20110113_101538_melville.all.mb58.gz 54.27MB Kongsberg multibeam vendor format
0088_20110113_104533_melville.all.mb58.gz 53.80MB Kongsberg multibeam vendor format
0089_20110113_111539_melville.all.mb58.gz 52.89MB Kongsberg multibeam vendor format
0090_20110113_114540_melville.all.mb58.gz 48.90MB Kongsberg multibeam vendor format
0091_20110113_121532_melville.all.mb58.gz 48.52MB Kongsberg multibeam vendor format
0092_20110113_124532_melville.all.mb58.gz 47.23MB Kongsberg multibeam vendor format
0093_20110113_131542_melville.all.mb58.gz 44.00MB Kongsberg multibeam vendor format
0094_20110113_134539_melville.all.mb58.gz 44.41MB Kongsberg multibeam vendor format
0095_20110113_141537_melville.all.mb58.gz 45.37MB Kongsberg multibeam vendor format
0096_20110113_144541_melville.all.mb58.gz 42.99MB Kongsberg multibeam vendor format
0097_20110113_151545_melville.all.mb58.gz 43.65MB Kongsberg multibeam vendor format
0098_20110113_154532_melville.all.mb58.gz 42.73MB Kongsberg multibeam vendor format
0099_20110113_161535_melville.all.mb58.gz 41.73MB Kongsberg multibeam vendor format
0100_20110113_164542_melville.all.mb58.gz 42.51MB Kongsberg multibeam vendor format
0101_20110113_171531_melville.all.mb58.gz 46.37MB Kongsberg multibeam vendor format
0102_20110113_174538_melville.all.mb58.gz 47.93MB Kongsberg multibeam vendor format
0103_20110113_181533_melville.all.mb58.gz 48.43MB Kongsberg multibeam vendor format
0104_20110113_184532_melville.all.mb58.gz 48.96MB Kongsberg multibeam vendor format
0105_20110113_191538_melville.all.mb58.gz 49.44MB Kongsberg multibeam vendor format
0106_20110113_194532_melville.all.mb58.gz 50.99MB Kongsberg multibeam vendor format
0107_20110113_201541_melville.all.mb58.gz 50.45MB Kongsberg multibeam vendor format
0108_20110113_204536_melville.all.mb58.gz 50.33MB Kongsberg multibeam vendor format
0109_20110113_211537_melville.all.mb58.gz 53.09MB Kongsberg multibeam vendor format
0110_20110113_214540_melville.all.mb58.gz 52.95MB Kongsberg multibeam vendor format
0111_20110113_221534_melville.all.mb58.gz 51.84MB Kongsberg multibeam vendor format
0112_20110113_224531_melville.all.mb58.gz 52.57MB Kongsberg multibeam vendor format
0113_20110113_231538_melville.all.mb58.gz 52.35MB Kongsberg multibeam vendor format
0114_20110113_234531_melville.all.mb58.gz 52.67MB Kongsberg multibeam vendor format
0115_20110114_001531_melville.all.mb58.gz 53.05MB Kongsberg multibeam vendor format
0116_20110114_004537_melville.all.mb58.gz 52.99MB Kongsberg multibeam vendor format
0117_20110114_011537_melville.all.mb58.gz 53.20MB Kongsberg multibeam vendor format
0118_20110114_014531_melville.all.mb58.gz 54.36MB Kongsberg multibeam vendor format
0119_20110114_021534_melville.all.mb58.gz 54.63MB Kongsberg multibeam vendor format
0120_20110114_024531_melville.all.mb58.gz 53.92MB Kongsberg multibeam vendor format
0121_20110114_031533_melville.all.mb58.gz 53.59MB Kongsberg multibeam vendor format
0122_20110114_034533_melville.all.mb58.gz 54.21MB Kongsberg multibeam vendor format
0123_20110114_041530_melville.all.mb58.gz 53.38MB Kongsberg multibeam vendor format
0124_20110114_044538_melville.all.mb58.gz 54.14MB Kongsberg multibeam vendor format
0125_20110114_051537_melville.all.mb58.gz 54.37MB Kongsberg multibeam vendor format
0126_20110114_054531_melville.all.mb58.gz 54.50MB Kongsberg multibeam vendor format
0127_20110114_061532_melville.all.mb58.gz 54.88MB Kongsberg multibeam vendor format
0128_20110114_064534_melville.all.mb58.gz 55.27MB Kongsberg multibeam vendor format
0129_20110114_071537_melville.all.mb58.gz 55.36MB Kongsberg multibeam vendor format
0130_20110114_074536_melville.all.mb58.gz 54.55MB Kongsberg multibeam vendor format
0131_20110114_081533_melville.all.mb58.gz 55.60MB Kongsberg multibeam vendor format
0132_20110114_084531_melville.all.mb58.gz 56.17MB Kongsberg multibeam vendor format
0133_20110114_091538_melville.all.mb58.gz 55.69MB Kongsberg multibeam vendor format
0134_20110114_094532_melville.all.mb58.gz 56.34MB Kongsberg multibeam vendor format
0135_20110114_101537_melville.all.mb58.gz 55.71MB Kongsberg multibeam vendor format
0136_20110114_104538_melville.all.mb58.gz 55.55MB Kongsberg multibeam vendor format
0137_20110114_111533_melville.all.mb58.gz 55.87MB Kongsberg multibeam vendor format
0138_20110114_114533_melville.all.mb58.gz 55.27MB Kongsberg multibeam vendor format
0139_20110114_121532_melville.all.mb58.gz 55.50MB Kongsberg multibeam vendor format
0140_20110114_124533_melville.all.mb58.gz 55.55MB Kongsberg multibeam vendor format
0141_20110114_131534_melville.all.mb58.gz 56.03MB Kongsberg multibeam vendor format
0142_20110114_134534_melville.all.mb58.gz 55.87MB Kongsberg multibeam vendor format
0143_20110114_141533_melville.all.mb58.gz 55.34MB Kongsberg multibeam vendor format
0144_20110114_144531_melville.all.mb58.gz 54.99MB Kongsberg multibeam vendor format
0145_20110114_151536_melville.all.mb58.gz 55.89MB Kongsberg multibeam vendor format
0146_20110114_154534_melville.all.mb58.gz 55.71MB Kongsberg multibeam vendor format
0147_20110114_161533_melville.all.mb58.gz 55.73MB Kongsberg multibeam vendor format
0148_20110114_164533_melville.all.mb58.gz 55.25MB Kongsberg multibeam vendor format
0149_20110114_171534_melville.all.mb58.gz 52.15MB Kongsberg multibeam vendor format
0150_20110114_174532_melville.all.mb58.gz 54.68MB Kongsberg multibeam vendor format
0151_20110114_181530_melville.all.mb58.gz 53.89MB Kongsberg multibeam vendor format
0152_20110114_184530_melville.all.mb58.gz 58.15MB Kongsberg multibeam vendor format
0153_20110114_191534_melville.all.mb58.gz 55.82MB Kongsberg multibeam vendor format
0154_20110114_194536_melville.all.mb58.gz 55.22MB Kongsberg multibeam vendor format
0155_20110114_201535_melville.all.mb58.gz 57.46MB Kongsberg multibeam vendor format
0156_20110114_204536_melville.all.mb58.gz 59.44MB Kongsberg multibeam vendor format
0157_20110114_211530_melville.all.mb58.gz 58.46MB Kongsberg multibeam vendor format
0158_20110114_214531_melville.all.mb58.gz 57.39MB Kongsberg multibeam vendor format
0159_20110114_221532_melville.all.mb58.gz 55.51MB Kongsberg multibeam vendor format
0160_20110114_224536_melville.all.mb58.gz 54.81MB Kongsberg multibeam vendor format
0161_20110114_231532_melville.all.mb58.gz 54.83MB Kongsberg multibeam vendor format
0162_20110114_234535_melville.all.mb58.gz 54.68MB Kongsberg multibeam vendor format
0163_20110115_001534_melville.all.mb58.gz 53.75MB Kongsberg multibeam vendor format
0164_20110115_004532_melville.all.mb58.gz 54.04MB Kongsberg multibeam vendor format
0165_20110115_011532_melville.all.mb58.gz 53.46MB Kongsberg multibeam vendor format
0166_20110115_014534_melville.all.mb58.gz 55.06MB Kongsberg multibeam vendor format
0167_20110115_021538_melville.all.mb58.gz 54.67MB Kongsberg multibeam vendor format
0168_20110115_024530_melville.all.mb58.gz 55.19MB Kongsberg multibeam vendor format
0169_20110115_031535_melville.all.mb58.gz 54.73MB Kongsberg multibeam vendor format
0170_20110115_034534_melville.all.mb58.gz 54.18MB Kongsberg multibeam vendor format
0171_20110115_041537_melville.all.mb58.gz 55.37MB Kongsberg multibeam vendor format
0172_20110115_044532_melville.all.mb58.gz 57.55MB Kongsberg multibeam vendor format
0173_20110115_051532_melville.all.mb58.gz 62.04MB Kongsberg multibeam vendor format
0174_20110115_054532_melville.all.mb58.gz 63.21MB Kongsberg multibeam vendor format
0175_20110115_061532_melville.all.mb58.gz 66.26MB Kongsberg multibeam vendor format
0176_20110115_064531_melville.all.mb58.gz 66.07MB Kongsberg multibeam vendor format
0177_20110115_071533_melville.all.mb58.gz 67.80MB Kongsberg multibeam vendor format
0178_20110115_074530_melville.all.mb58.gz 68.67MB Kongsberg multibeam vendor format
0179_20110115_081533_melville.all.mb58.gz 68.99MB Kongsberg multibeam vendor format
0180_20110115_084531_melville.all.mb58.gz 69.79MB Kongsberg multibeam vendor format
0181_20110115_091529_melville.all.mb58.gz 70.08MB Kongsberg multibeam vendor format
0182_20110115_094532_melville.all.mb58.gz 70.04MB Kongsberg multibeam vendor format
0183_20110115_101529_melville.all.mb58.gz 70.78MB Kongsberg multibeam vendor format
0184_20110115_104530_melville.all.mb58.gz 71.60MB Kongsberg multibeam vendor format
0185_20110115_111532_melville.all.mb58.gz 71.96MB Kongsberg multibeam vendor format
0186_20110115_114531_melville.all.mb58.gz 72.58MB Kongsberg multibeam vendor format
0187_20110115_121530_melville.all.mb58.gz 73.24MB Kongsberg multibeam vendor format
0188_20110115_124530_melville.all.mb58.gz 74.38MB Kongsberg multibeam vendor format
0189_20110115_131531_melville.all.mb58.gz 75.80MB Kongsberg multibeam vendor format
0190_20110115_134529_melville.all.mb58.gz 77.26MB Kongsberg multibeam vendor format
0191_20110115_141530_melville.all.mb58.gz 78.15MB Kongsberg multibeam vendor format
0192_20110115_144531_melville.all.mb58.gz 77.32MB Kongsberg multibeam vendor format
0193_20110115_151531_melville.all.mb58.gz 79.39MB Kongsberg multibeam vendor format
0194_20110115_154530_melville.all.mb58.gz 77.96MB Kongsberg multibeam vendor format
0195_20110115_161530_melville.all.mb58.gz 79.68MB Kongsberg multibeam vendor format
0196_20110115_164531_melville.all.mb58.gz 78.56MB Kongsberg multibeam vendor format
0197_20110115_171529_melville.all.mb58.gz 75.46MB Kongsberg multibeam vendor format
0198_20110115_174529_melville.all.mb58.gz 74.37MB Kongsberg multibeam vendor format
0199_20110115_181530_melville.all.mb58.gz 72.12MB Kongsberg multibeam vendor format
0200_20110115_184529_melville.all.mb58.gz 70.16MB Kongsberg multibeam vendor format
0201_20110115_191530_melville.all.mb58.gz 65.68MB Kongsberg multibeam vendor format
0202_20110115_194529_melville.all.mb58.gz 70.49MB Kongsberg multibeam vendor format
0203_20110115_201529_melville.all.mb58.gz 67.66MB Kongsberg multibeam vendor format
0204_20110115_204529_melville.all.mb58.gz 65.24MB Kongsberg multibeam vendor format
0205_20110115_211531_melville.all.mb58.gz 57.85MB Kongsberg multibeam vendor format
0206_20110115_214530_melville.all.mb58.gz 66.68MB Kongsberg multibeam vendor format
0207_20110115_221529_melville.all.mb58.gz 63.92MB Kongsberg multibeam vendor format
0208_20110115_224532_melville.all.mb58.gz 62.40MB Kongsberg multibeam vendor format
0209_20110115_231532_melville.all.mb58.gz 60.34MB Kongsberg multibeam vendor format
0210_20110115_234530_melville.all.mb58.gz 61.08MB Kongsberg multibeam vendor format
0211_20110116_001531_melville.all.mb58.gz 56.82MB Kongsberg multibeam vendor format
0212_20110116_004530_melville.all.mb58.gz 58.69MB Kongsberg multibeam vendor format
0213_20110116_011531_melville.all.mb58.gz 60.16MB Kongsberg multibeam vendor format
0214_20110116_014529_melville.all.mb58.gz 60.67MB Kongsberg multibeam vendor format
0215_20110116_021529_melville.all.mb58.gz 59.01MB Kongsberg multibeam vendor format
0216_20110116_024530_melville.all.mb58.gz 62.67MB Kongsberg multibeam vendor format
0217_20110116_031535_melville.all.mb58.gz 63.28MB Kongsberg multibeam vendor format
0218_20110116_034531_melville.all.mb58.gz 64.02MB Kongsberg multibeam vendor format
0219_20110116_041529_melville.all.mb58.gz 64.56MB Kongsberg multibeam vendor format
0220_20110116_044528_melville.all.mb58.gz 62.87MB Kongsberg multibeam vendor format
0221_20110116_051530_melville.all.mb58.gz 64.46MB Kongsberg multibeam vendor format
0222_20110116_054533_melville.all.mb58.gz 63.70MB Kongsberg multibeam vendor format
0223_20110116_061533_melville.all.mb58.gz 64.42MB Kongsberg multibeam vendor format
0224_20110116_064534_melville.all.mb58.gz 64.00MB Kongsberg multibeam vendor format
0225_20110116_071528_melville.all.mb58.gz 62.73MB Kongsberg multibeam vendor format
0226_20110116_074534_melville.all.mb58.gz 59.85MB Kongsberg multibeam vendor format
0227_20110116_081533_melville.all.mb58.gz 63.36MB Kongsberg multibeam vendor format
0228_20110116_084528_melville.all.mb58.gz 65.21MB Kongsberg multibeam vendor format
0229_20110116_091528_melville.all.mb58.gz 65.95MB Kongsberg multibeam vendor format
0230_20110116_094528_melville.all.mb58.gz 65.82MB Kongsberg multibeam vendor format
0231_20110116_101530_melville.all.mb58.gz 66.84MB Kongsberg multibeam vendor format
0232_20110116_104529_melville.all.mb58.gz 67.53MB Kongsberg multibeam vendor format
0233_20110116_111532_melville.all.mb58.gz 67.12MB Kongsberg multibeam vendor format
0234_20110116_114528_melville.all.mb58.gz 67.20MB Kongsberg multibeam vendor format
0235_20110116_121531_melville.all.mb58.gz 67.06MB Kongsberg multibeam vendor format
0236_20110116_124529_melville.all.mb58.gz 66.99MB Kongsberg multibeam vendor format
0237_20110116_131531_melville.all.mb58.gz 67.75MB Kongsberg multibeam vendor format
0238_20110116_134531_melville.all.mb58.gz 67.79MB Kongsberg multibeam vendor format
0239_20110116_141529_melville.all.mb58.gz 68.77MB Kongsberg multibeam vendor format
0240_20110116_144529_melville.all.mb58.gz 68.14MB Kongsberg multibeam vendor format
0241_20110116_151529_melville.all.mb58.gz 68.32MB Kongsberg multibeam vendor format
0242_20110116_154531_melville.all.mb58.gz 69.18MB Kongsberg multibeam vendor format
0243_20110116_161531_melville.all.mb58.gz 70.60MB Kongsberg multibeam vendor format
0244_20110116_164529_melville.all.mb58.gz 72.63MB Kongsberg multibeam vendor format
0245_20110116_171529_melville.all.mb58.gz 76.73MB Kongsberg multibeam vendor format
0246_20110116_174528_melville.all.mb58.gz 86.29MB Kongsberg multibeam vendor format
0247_20110116_181529_melville.all.mb58.gz 99.93MB Kongsberg multibeam vendor format
0248_20110116_184528_melville.all.mb58.gz 115.00MB Kongsberg multibeam vendor format
0249_20110116_191528_melville.all.mb58.gz 115.57MB Kongsberg multibeam vendor format
0250_20110116_194528_melville.all.mb58.gz 115.20MB Kongsberg multibeam vendor format
0251_20110116_201527_melville.all.mb58.gz 115.61MB Kongsberg multibeam vendor format
0252_20110116_204528_melville.all.mb58.gz 115.32MB Kongsberg multibeam vendor format
0253_20110116_211527_melville.all.mb58.gz 109.21MB Kongsberg multibeam vendor format
0254_20110116_214528_melville.all.mb58.gz 107.67MB Kongsberg multibeam vendor format
0255_20110116_221528_melville.all.mb58.gz 109.62MB Kongsberg multibeam vendor format
0256_20110116_224528_melville.all.mb58.gz 109.15MB Kongsberg multibeam vendor format
0257_20110116_231528_melville.all.mb58.gz 111.19MB Kongsberg multibeam vendor format
0258_20110116_234528_melville.all.mb58.gz 109.34MB Kongsberg multibeam vendor format
0259_20110117_001528_melville.all.mb58.gz 113.18MB Kongsberg multibeam vendor format
0260_20110117_004528_melville.all.mb58.gz 111.45MB Kongsberg multibeam vendor format
0261_20110117_011528_melville.all.mb58.gz 110.81MB Kongsberg multibeam vendor format
0262_20110117_014528_melville.all.mb58.gz 111.88MB Kongsberg multibeam vendor format
0263_20110117_021527_melville.all.mb58.gz 110.40MB Kongsberg multibeam vendor format
0264_20110117_024527_melville.all.mb58.gz 112.41MB Kongsberg multibeam vendor format
0265_20110117_031527_melville.all.mb58.gz 112.69MB Kongsberg multibeam vendor format
0266_20110117_034528_melville.all.mb58.gz 103.39MB Kongsberg multibeam vendor format
0267_20110117_041535_melville.all.mb58.gz 77.88MB Kongsberg multibeam vendor format
0268_20110117_044530_melville.all.mb58.gz 53.95MB Kongsberg multibeam vendor format
0269_20110117_051529_melville.all.mb58.gz 32.22MB Kongsberg multibeam vendor format
0270_20110117_054536_melville.all.mb58.gz 31.19MB Kongsberg multibeam vendor format
0271_20110117_060836_melville.all.mb58.gz 63.62MB Kongsberg multibeam vendor format
0272_20110117_063837_melville.all.mb58.gz 62.38MB Kongsberg multibeam vendor format
0273_20110117_070837_melville.all.mb58.gz 61.02MB Kongsberg multibeam vendor format
0274_20110117_073841_melville.all.mb58.gz 58.44MB Kongsberg multibeam vendor format
0275_20110117_080836_melville.all.mb58.gz 57.84MB Kongsberg multibeam vendor format
0276_20110117_083836_melville.all.mb58.gz 55.14MB Kongsberg multibeam vendor format
0277_20110117_090840_melville.all.mb58.gz 55.42MB Kongsberg multibeam vendor format
0278_20110117_093838_melville.all.mb58.gz 61.52MB Kongsberg multibeam vendor format
0279_20110117_100838_melville.all.mb58.gz 59.20MB Kongsberg multibeam vendor format
0280_20110117_103836_melville.all.mb58.gz 52.56MB Kongsberg multibeam vendor format
0281_20110117_110836_melville.all.mb58.gz 49.44MB Kongsberg multibeam vendor format
0282_20110117_113839_melville.all.mb58.gz 50.88MB Kongsberg multibeam vendor format
0283_20110117_120836_melville.all.mb58.gz 42.55MB Kongsberg multibeam vendor format
0284_20110117_123837_melville.all.mb58.gz 49.40MB Kongsberg multibeam vendor format
0285_20110117_130838_melville.all.mb58.gz 47.32MB Kongsberg multibeam vendor format
0286_20110117_133840_melville.all.mb58.gz 53.82MB Kongsberg multibeam vendor format
0287_20110117_140839_melville.all.mb58.gz 45.48MB Kongsberg multibeam vendor format
0288_20110117_143837_melville.all.mb58.gz 49.23MB Kongsberg multibeam vendor format
0289_20110117_150837_melville.all.mb58.gz 51.89MB Kongsberg multibeam vendor format
0290_20110117_153836_melville.all.mb58.gz 60.33MB Kongsberg multibeam vendor format
0291_20110117_160837_melville.all.mb58.gz 57.11MB Kongsberg multibeam vendor format
0292_20110117_163835_melville.all.mb58.gz 60.57MB Kongsberg multibeam vendor format
0293_20110117_170838_melville.all.mb58.gz 59.39MB Kongsberg multibeam vendor format
0294_20110117_173836_melville.all.mb58.gz 58.00MB Kongsberg multibeam vendor format
0295_20110117_180839_melville.all.mb58.gz 58.68MB Kongsberg multibeam vendor format
0296_20110117_183836_melville.all.mb58.gz 52.84MB Kongsberg multibeam vendor format
0297_20110117_190840_melville.all.mb58.gz 52.51MB Kongsberg multibeam vendor format
0298_20110117_193841_melville.all.mb58.gz 62.01MB Kongsberg multibeam vendor format
0299_20110117_200836_melville.all.mb58.gz 60.51MB Kongsberg multibeam vendor format
0300_20110117_203839_melville.all.mb58.gz 54.02MB Kongsberg multibeam vendor format
0301_20110117_210840_melville.all.mb58.gz 51.98MB Kongsberg multibeam vendor format
0302_20110117_213839_melville.all.mb58.gz 48.26MB Kongsberg multibeam vendor format
0303_20110117_220838_melville.all.mb58.gz 47.05MB Kongsberg multibeam vendor format
0304_20110117_223845_melville.all.mb58.gz 44.64MB Kongsberg multibeam vendor format
0305_20110117_230845_melville.all.mb58.gz 41.16MB Kongsberg multibeam vendor format
0306_20110117_233839_melville.all.mb58.gz 41.37MB Kongsberg multibeam vendor format
0307_20110118_000841_melville.all.mb58.gz 40.76MB Kongsberg multibeam vendor format
0308_20110118_003848_melville.all.mb58.gz 37.02MB Kongsberg multibeam vendor format
0309_20110118_010841_melville.all.mb58.gz 35.33MB Kongsberg multibeam vendor format
0310_20110118_013847_melville.all.mb58.gz 34.92MB Kongsberg multibeam vendor format
0311_20110118_020848_melville.all.mb58.gz 34.91MB Kongsberg multibeam vendor format
0312_20110118_023855_melville.all.mb58.gz 34.15MB Kongsberg multibeam vendor format
0313_20110118_030855_melville.all.mb58.gz 33.10MB Kongsberg multibeam vendor format
0314_20110118_033840_melville.all.mb58.gz 33.67MB Kongsberg multibeam vendor format
0315_20110118_040900_melville.all.mb58.gz 33.02MB Kongsberg multibeam vendor format
0316_20110118_043848_melville.all.mb58.gz 33.25MB Kongsberg multibeam vendor format
0317_20110118_050904_melville.all.mb58.gz 32.79MB Kongsberg multibeam vendor format
0318_20110118_053908_melville.all.mb58.gz 31.81MB Kongsberg multibeam vendor format
0319_20110118_060839_melville.all.mb58.gz 32.64MB Kongsberg multibeam vendor format
0320_20110118_063902_melville.all.mb58.gz 32.27MB Kongsberg multibeam vendor format
0321_20110118_070846_melville.all.mb58.gz 32.46MB Kongsberg multibeam vendor format
0322_20110118_073843_melville.all.mb58.gz 32.96MB Kongsberg multibeam vendor format
0323_20110118_080905_melville.all.mb58.gz 32.42MB Kongsberg multibeam vendor format
0324_20110118_083859_melville.all.mb58.gz 32.38MB Kongsberg multibeam vendor format
0325_20110118_090851_melville.all.mb58.gz 32.52MB Kongsberg multibeam vendor format
0326_20110118_093901_melville.all.mb58.gz 32.23MB Kongsberg multibeam vendor format
0327_20110118_100848_melville.all.mb58.gz 32.35MB Kongsberg multibeam vendor format
0328_20110118_103845_melville.all.mb58.gz 32.45MB Kongsberg multibeam vendor format
0329_20110118_110859_melville.all.mb58.gz 31.72MB Kongsberg multibeam vendor format
0330_20110118_113845_melville.all.mb58.gz 31.89MB Kongsberg multibeam vendor format
0331_20110118_120838_melville.all.mb58.gz 32.57MB Kongsberg multibeam vendor format
0332_20110118_123906_melville.all.mb58.gz 31.88MB Kongsberg multibeam vendor format
0333_20110118_130855_melville.all.mb58.gz 31.99MB Kongsberg multibeam vendor format
0334_20110118_133843_melville.all.mb58.gz 32.69MB Kongsberg multibeam vendor format
0335_20110118_140910_melville.all.mb58.gz 32.14MB Kongsberg multibeam vendor format
0336_20110118_143859_melville.all.mb58.gz 32.10MB Kongsberg multibeam vendor format
0337_20110118_150849_melville.all.mb58.gz 32.09MB Kongsberg multibeam vendor format
0338_20110118_153839_melville.all.mb58.gz 32.74MB Kongsberg multibeam vendor format
0339_20110118_160906_melville.all.mb58.gz 31.76MB Kongsberg multibeam vendor format
0340_20110118_163855_melville.all.mb58.gz 32.12MB Kongsberg multibeam vendor format
0341_20110118_170845_melville.all.mb58.gz 32.15MB Kongsberg multibeam vendor format
0342_20110118_173838_melville.all.mb58.gz 32.63MB Kongsberg multibeam vendor format
0343_20110118_180908_melville.all.mb58.gz 31.88MB Kongsberg multibeam vendor format
0344_20110118_183900_melville.all.mb58.gz 32.09MB Kongsberg multibeam vendor format
0345_20110118_190849_melville.all.mb58.gz 31.76MB Kongsberg multibeam vendor format
0346_20110118_193838_melville.all.mb58.gz 32.38MB Kongsberg multibeam vendor format
0347_20110118_200903_melville.all.mb58.gz 31.89MB Kongsberg multibeam vendor format
0348_20110118_203850_melville.all.mb58.gz 31.91MB Kongsberg multibeam vendor format
0349_20110118_210839_melville.all.mb58.gz 32.14MB Kongsberg multibeam vendor format
0350_20110118_213904_melville.all.mb58.gz 32.27MB Kongsberg multibeam vendor format
0351_20110118_220853_melville.all.mb58.gz 31.92MB Kongsberg multibeam vendor format
0352_20110118_223841_melville.all.mb58.gz 32.06MB Kongsberg multibeam vendor format
0353_20110118_230907_melville.all.mb58.gz 31.39MB Kongsberg multibeam vendor format
0354_20110118_233855_melville.all.mb58.gz 31.60MB Kongsberg multibeam vendor format
0355_20110119_000842_melville.all.mb58.gz 32.23MB Kongsberg multibeam vendor format
0356_20110119_003906_melville.all.mb58.gz 31.92MB Kongsberg multibeam vendor format
0357_20110119_010854_melville.all.mb58.gz 31.89MB Kongsberg multibeam vendor format
0358_20110119_013843_melville.all.mb58.gz 32.53MB Kongsberg multibeam vendor format
0359_20110119_020911_melville.all.mb58.gz 31.85MB Kongsberg multibeam vendor format
0360_20110119_023900_melville.all.mb58.gz 31.53MB Kongsberg multibeam vendor format
0361_20110119_030857_melville.all.mb58.gz 32.31MB Kongsberg multibeam vendor format
0362_20110119_033846_melville.all.mb58.gz 31.44MB Kongsberg multibeam vendor format
0363_20110119_040845_melville.all.mb58.gz 31.89MB Kongsberg multibeam vendor format
0364_20110119_043835_melville.all.mb58.gz 32.52MB Kongsberg multibeam vendor format
0365_20110119_050903_melville.all.mb58.gz 32.02MB Kongsberg multibeam vendor format
0366_20110119_053852_melville.all.mb58.gz 31.81MB Kongsberg multibeam vendor format
0367_20110119_060839_melville.all.mb58.gz 32.94MB Kongsberg multibeam vendor format
0368_20110119_063903_melville.all.mb58.gz 32.01MB Kongsberg multibeam vendor format
0369_20110119_070849_melville.all.mb58.gz 32.55MB Kongsberg multibeam vendor format
0370_20110119_073908_melville.all.mb58.gz 31.63MB Kongsberg multibeam vendor format
0371_20110119_080847_melville.all.mb58.gz 30.80MB Kongsberg multibeam vendor format
0372_20110119_083903_melville.all.mb58.gz 31.30MB Kongsberg multibeam vendor format
0373_20110119_090849_melville.all.mb58.gz 31.91MB Kongsberg multibeam vendor format
0374_20110119_093905_melville.all.mb58.gz 31.83MB Kongsberg multibeam vendor format
0375_20110119_100844_melville.all.mb58.gz 31.48MB Kongsberg multibeam vendor format
0376_20110119_103859_melville.all.mb58.gz 31.03MB Kongsberg multibeam vendor format
0377_20110119_110838_melville.all.mb58.gz 31.69MB Kongsberg multibeam vendor format
0378_20110119_113854_melville.all.mb58.gz 31.69MB Kongsberg multibeam vendor format
0379_20110119_120910_melville.all.mb58.gz 30.80MB Kongsberg multibeam vendor format
0380_20110119_123848_melville.all.mb58.gz 31.32MB Kongsberg multibeam vendor format
0381_20110119_130904_melville.all.mb58.gz 30.28MB Kongsberg multibeam vendor format
0382_20110119_133842_melville.all.mb58.gz 31.41MB Kongsberg multibeam vendor format
0383_20110119_140905_melville.all.mb58.gz 31.35MB Kongsberg multibeam vendor format
0384_20110119_143843_melville.all.mb58.gz 32.06MB Kongsberg multibeam vendor format
0385_20110119_150900_melville.all.mb58.gz 31.43MB Kongsberg multibeam vendor format
0386_20110119_153841_melville.all.mb58.gz 32.11MB Kongsberg multibeam vendor format
0387_20110119_160856_melville.all.mb58.gz 31.43MB Kongsberg multibeam vendor format
0388_20110119_163834_melville.all.mb58.gz 32.45MB Kongsberg multibeam vendor format
0389_20110119_170849_melville.all.mb58.gz 32.20MB Kongsberg multibeam vendor format
0390_20110119_173904_melville.all.mb58.gz 31.41MB Kongsberg multibeam vendor format
0391_20110119_180845_melville.all.mb58.gz 31.74MB Kongsberg multibeam vendor format
0392_20110119_183906_melville.all.mb58.gz 31.71MB Kongsberg multibeam vendor format
0393_20110119_190849_melville.all.mb58.gz 32.49MB Kongsberg multibeam vendor format
0394_20110119_193909_melville.all.mb58.gz 31.75MB Kongsberg multibeam vendor format
0395_20110119_200850_melville.all.mb58.gz 32.73MB Kongsberg multibeam vendor format
0396_20110119_203908_melville.all.mb58.gz 31.90MB Kongsberg multibeam vendor format
0397_20110119_210849_melville.all.mb58.gz 32.51MB Kongsberg multibeam vendor format
0398_20110119_213907_melville.all.mb58.gz 31.53MB Kongsberg multibeam vendor format
0399_20110119_220854_melville.all.mb58.gz 32.72MB Kongsberg multibeam vendor format
0400_20110119_223911_melville.all.mb58.gz 31.67MB Kongsberg multibeam vendor format
0401_20110119_230851_melville.all.mb58.gz 32.56MB Kongsberg multibeam vendor format
0402_20110119_233910_melville.all.mb58.gz 31.69MB Kongsberg multibeam vendor format
0403_20110120_000853_melville.all.mb58.gz 31.87MB Kongsberg multibeam vendor format
0404_20110120_003838_melville.all.mb58.gz 32.30MB Kongsberg multibeam vendor format
0405_20110120_010859_melville.all.mb58.gz 32.11MB Kongsberg multibeam vendor format
0406_20110120_013846_melville.all.mb58.gz 32.69MB Kongsberg multibeam vendor format
0407_20110120_020910_melville.all.mb58.gz 31.93MB Kongsberg multibeam vendor format
0408_20110120_023902_melville.all.mb58.gz 31.85MB Kongsberg multibeam vendor format
0409_20110120_030856_melville.all.mb58.gz 32.32MB Kongsberg multibeam vendor format
0410_20110120_033850_melville.all.mb58.gz 31.75MB Kongsberg multibeam vendor format
0411_20110120_040845_melville.all.mb58.gz 31.56MB Kongsberg multibeam vendor format
0412_20110120_043838_melville.all.mb58.gz 32.27MB Kongsberg multibeam vendor format
0413_20110120_050909_melville.all.mb58.gz 32.11MB Kongsberg multibeam vendor format
0414_20110120_053903_melville.all.mb58.gz 32.05MB Kongsberg multibeam vendor format
0415_20110120_060853_melville.all.mb58.gz 31.87MB Kongsberg multibeam vendor format
0416_20110120_063838_melville.all.mb58.gz 32.39MB Kongsberg multibeam vendor format
0417_20110120_070859_melville.all.mb58.gz 31.66MB Kongsberg multibeam vendor format
0418_20110120_073841_melville.all.mb58.gz 32.14MB Kongsberg multibeam vendor format
0419_20110120_080900_melville.all.mb58.gz 31.73MB Kongsberg multibeam vendor format
0420_20110120_083841_melville.all.mb58.gz 32.68MB Kongsberg multibeam vendor format
0421_20110120_090859_melville.all.mb58.gz 31.94MB Kongsberg multibeam vendor format
0422_20110120_093840_melville.all.mb58.gz 32.69MB Kongsberg multibeam vendor format
0423_20110120_100858_melville.all.mb58.gz 32.01MB Kongsberg multibeam vendor format
0424_20110120_103838_melville.all.mb58.gz 32.67MB Kongsberg multibeam vendor format
0425_20110120_110856_melville.all.mb58.gz 31.45MB Kongsberg multibeam vendor format
0426_20110120_113836_melville.all.mb58.gz 32.31MB Kongsberg multibeam vendor format
0427_20110120_120853_melville.all.mb58.gz 32.01MB Kongsberg multibeam vendor format
0428_20110120_123833_melville.all.mb58.gz 32.06MB Kongsberg multibeam vendor format
0429_20110120_130851_melville.all.mb58.gz 32.14MB Kongsberg multibeam vendor format
0430_20110120_133907_melville.all.mb58.gz 31.71MB Kongsberg multibeam vendor format
0431_20110120_140847_melville.all.mb58.gz 31.97MB Kongsberg multibeam vendor format
0432_20110120_143903_melville.all.mb58.gz 31.51MB Kongsberg multibeam vendor format
0433_20110120_150843_melville.all.mb58.gz 32.21MB Kongsberg multibeam vendor format
0434_20110120_153859_melville.all.mb58.gz 31.38MB Kongsberg multibeam vendor format
0435_20110120_160839_melville.all.mb58.gz 32.21MB Kongsberg multibeam vendor format
0436_20110120_163855_melville.all.mb58.gz 31.70MB Kongsberg multibeam vendor format
0437_20110120_170835_melville.all.mb58.gz 31.97MB Kongsberg multibeam vendor format
0438_20110120_173851_melville.all.mb58.gz 32.07MB Kongsberg multibeam vendor format
0439_20110120_180908_melville.all.mb58.gz 30.82MB Kongsberg multibeam vendor format
0440_20110120_183847_melville.all.mb58.gz 31.44MB Kongsberg multibeam vendor format
0441_20110120_190904_melville.all.mb58.gz 30.88MB Kongsberg multibeam vendor format
0442_20110120_193845_melville.all.mb58.gz 31.80MB Kongsberg multibeam vendor format
0443_20110120_200905_melville.all.mb58.gz 31.13MB Kongsberg multibeam vendor format
0444_20110120_203848_melville.all.mb58.gz 31.79MB Kongsberg multibeam vendor format
0445_20110120_210907_melville.all.mb58.gz 31.23MB Kongsberg multibeam vendor format
0446_20110120_213850_melville.all.mb58.gz 31.63MB Kongsberg multibeam vendor format
0447_20110120_220909_melville.all.mb58.gz 31.47MB Kongsberg multibeam vendor format
0448_20110120_223852_melville.all.mb58.gz 31.97MB Kongsberg multibeam vendor format
0449_20110120_230835_melville.all.mb58.gz 32.32MB Kongsberg multibeam vendor format
0450_20110120_233854_melville.all.mb58.gz 31.16MB Kongsberg multibeam vendor format
0451_20110121_000837_melville.all.mb58.gz 32.20MB Kongsberg multibeam vendor format
0452_20110121_003855_melville.all.mb58.gz 31.53MB Kongsberg multibeam vendor format
0453_20110121_010837_melville.all.mb58.gz 32.36MB Kongsberg multibeam vendor format
0454_20110121_013857_melville.all.mb58.gz 31.61MB Kongsberg multibeam vendor format
0455_20110121_020840_melville.all.mb58.gz 32.30MB Kongsberg multibeam vendor format
0456_20110121_023900_melville.all.mb58.gz 31.70MB Kongsberg multibeam vendor format
0457_20110121_030842_melville.all.mb58.gz 32.14MB Kongsberg multibeam vendor format
0458_20110121_033902_melville.all.mb58.gz 31.84MB Kongsberg multibeam vendor format
0459_20110121_040845_melville.all.mb58.gz 32.14MB Kongsberg multibeam vendor format
0460_20110121_043904_melville.all.mb58.gz 31.47MB Kongsberg multibeam vendor format
0461_20110121_050838_melville.all.mb58.gz 32.37MB Kongsberg multibeam vendor format
0462_20110121_053858_melville.all.mb58.gz 31.80MB Kongsberg multibeam vendor format
0463_20110121_060840_melville.all.mb58.gz 32.47MB Kongsberg multibeam vendor format
0464_20110121_063901_melville.all.mb58.gz 31.82MB Kongsberg multibeam vendor format
0465_20110121_070843_melville.all.mb58.gz 32.24MB Kongsberg multibeam vendor format
0466_20110121_073902_melville.all.mb58.gz 31.77MB Kongsberg multibeam vendor format
0467_20110121_080844_melville.all.mb58.gz 32.41MB Kongsberg multibeam vendor format
0468_20110121_083903_melville.all.mb58.gz 31.84MB Kongsberg multibeam vendor format
0469_20110121_090844_melville.all.mb58.gz 32.36MB Kongsberg multibeam vendor format
0470_20110121_093902_melville.all.mb58.gz 31.80MB Kongsberg multibeam vendor format
0471_20110121_100843_melville.all.mb58.gz 32.39MB Kongsberg multibeam vendor format
0472_20110121_103901_melville.all.mb58.gz 31.79MB Kongsberg multibeam vendor format
0473_20110121_110842_melville.all.mb58.gz 32.12MB Kongsberg multibeam vendor format
0474_20110121_113859_melville.all.mb58.gz 31.59MB Kongsberg multibeam vendor format
0475_20110121_120837_melville.all.mb58.gz 32.32MB Kongsberg multibeam vendor format
0476_20110121_123852_melville.all.mb58.gz 32.30MB Kongsberg multibeam vendor format
0477_20110121_130906_melville.all.mb58.gz 31.66MB Kongsberg multibeam vendor format
0478_20110121_133843_melville.all.mb58.gz 32.41MB Kongsberg multibeam vendor format
0479_20110121_140857_melville.all.mb58.gz 31.76MB Kongsberg multibeam vendor format
0480_20110121_143834_melville.all.mb58.gz 32.34MB Kongsberg multibeam vendor format
0481_20110121_150848_melville.all.mb58.gz 32.33MB Kongsberg multibeam vendor format
0482_20110121_153902_melville.all.mb58.gz 31.56MB Kongsberg multibeam vendor format
0483_20110121_160839_melville.all.mb58.gz 32.28MB Kongsberg multibeam vendor format
0484_20110121_163853_melville.all.mb58.gz 32.21MB Kongsberg multibeam vendor format
0485_20110121_170906_melville.all.mb58.gz 31.54MB Kongsberg multibeam vendor format
0486_20110121_173843_melville.all.mb58.gz 32.27MB Kongsberg multibeam vendor format
0487_20110121_180856_melville.all.mb58.gz 32.42MB Kongsberg multibeam vendor format
0488_20110121_183908_melville.all.mb58.gz 31.74MB Kongsberg multibeam vendor format
0489_20110121_190842_melville.all.mb58.gz 32.43MB Kongsberg multibeam vendor format
0490_20110121_193853_melville.all.mb58.gz 32.39MB Kongsberg multibeam vendor format
0491_20110121_200903_melville.all.mb58.gz 31.75MB Kongsberg multibeam vendor format
0492_20110121_203837_melville.all.mb58.gz 32.42MB Kongsberg multibeam vendor format
0493_20110121_210848_melville.all.mb58.gz 32.43MB Kongsberg multibeam vendor format
0494_20110121_213858_melville.all.mb58.gz 32.38MB Kongsberg multibeam vendor format
0495_20110121_220907_melville.all.mb58.gz 31.67MB Kongsberg multibeam vendor format
0496_20110121_223837_melville.all.mb58.gz 32.19MB Kongsberg multibeam vendor format
0497_20110121_230841_melville.all.mb58.gz 32.17MB Kongsberg multibeam vendor format
0498_20110121_233846_melville.all.mb58.gz 32.02MB Kongsberg multibeam vendor format
0499_20110122_000844_melville.all.mb58.gz 32.15MB Kongsberg multibeam vendor format
0500_20110122_003846_melville.all.mb58.gz 32.32MB Kongsberg multibeam vendor format
0501_20110122_010854_melville.all.mb58.gz 31.88MB Kongsberg multibeam vendor format
0502_20110122_013839_melville.all.mb58.gz 32.71MB Kongsberg multibeam vendor format
0503_20110122_020908_melville.all.mb58.gz 32.09MB Kongsberg multibeam vendor format
0504_20110122_023905_melville.all.mb58.gz 32.13MB Kongsberg multibeam vendor format
0505_20110122_030907_melville.all.mb58.gz 31.74MB Kongsberg multibeam vendor format
0506_20110122_033904_melville.all.mb58.gz 31.92MB Kongsberg multibeam vendor format
0507_20110122_040906_melville.all.mb58.gz 31.45MB Kongsberg multibeam vendor format
0508_20110122_043834_melville.all.mb58.gz 32.07MB Kongsberg multibeam vendor format
0509_20110122_050840_melville.all.mb58.gz 31.90MB Kongsberg multibeam vendor format
0510_20110122_053833_melville.all.mb58.gz 32.55MB Kongsberg multibeam vendor format
0511_20110122_060906_melville.all.mb58.gz 31.89MB Kongsberg multibeam vendor format
0512_20110122_063853_melville.all.mb58.gz 31.88MB Kongsberg multibeam vendor format
0513_20110122_070838_melville.all.mb58.gz 32.04MB Kongsberg multibeam vendor format
0514_20110122_073839_melville.all.mb58.gz 32.46MB Kongsberg multibeam vendor format
0515_20110122_080853_melville.all.mb58.gz 31.65MB Kongsberg multibeam vendor format
0516_20110122_083836_melville.all.mb58.gz 32.51MB Kongsberg multibeam vendor format
0517_20110122_090906_melville.all.mb58.gz 31.90MB Kongsberg multibeam vendor format
0518_20110122_093848_melville.all.mb58.gz 32.03MB Kongsberg multibeam vendor format
0519_20110122_100846_melville.all.mb58.gz 32.25MB Kongsberg multibeam vendor format
0520_20110122_103903_melville.all.mb58.gz 32.03MB Kongsberg multibeam vendor format
0521_20110122_110853_melville.all.mb58.gz 32.17MB Kongsberg multibeam vendor format
0522_20110122_113850_melville.all.mb58.gz 32.41MB Kongsberg multibeam vendor format
0523_20110122_120859_melville.all.mb58.gz 31.99MB Kongsberg multibeam vendor format
0524_20110122_123845_melville.all.mb58.gz 32.06MB Kongsberg multibeam vendor format
0525_20110122_130841_melville.all.mb58.gz 32.18MB Kongsberg multibeam vendor format
0526_20110122_133838_melville.all.mb58.gz 32.12MB Kongsberg multibeam vendor format
0527_20110122_140832_melville.all.mb58.gz 32.08MB Kongsberg multibeam vendor format
0528_20110122_143833_melville.all.mb58.gz 32.19MB Kongsberg multibeam vendor format
0529_20110122_150843_melville.all.mb58.gz 32.32MB Kongsberg multibeam vendor format
0530_20110122_153907_melville.all.mb58.gz 31.60MB Kongsberg multibeam vendor format
0531_20110122_160837_melville.all.mb58.gz 32.18MB Kongsberg multibeam vendor format
0532_20110122_163837_melville.all.mb58.gz 31.68MB Kongsberg multibeam vendor format
0533_20110122_170839_melville.all.mb58.gz 31.92MB Kongsberg multibeam vendor format
0534_20110122_173838_melville.all.mb58.gz 32.14MB Kongsberg multibeam vendor format
0535_20110122_180838_melville.all.mb58.gz 31.93MB Kongsberg multibeam vendor format
0536_20110122_183838_melville.all.mb58.gz 32.02MB Kongsberg multibeam vendor format
0537_20110122_190838_melville.all.mb58.gz 32.05MB Kongsberg multibeam vendor format
0538_20110122_193840_melville.all.mb58.gz 32.00MB Kongsberg multibeam vendor format
0539_20110122_200838_melville.all.mb58.gz 31.90MB Kongsberg multibeam vendor format
0540_20110122_203839_melville.all.mb58.gz 32.18MB Kongsberg multibeam vendor format
0541_20110122_210839_melville.all.mb58.gz 32.57MB Kongsberg multibeam vendor format
0542_20110122_213859_melville.all.mb58.gz 31.72MB Kongsberg multibeam vendor format
0543_20110122_220846_melville.all.mb58.gz 31.97MB Kongsberg multibeam vendor format
0544_20110122_223847_melville.all.mb58.gz 32.14MB Kongsberg multibeam vendor format
0545_20110122_230849_melville.all.mb58.gz 32.22MB Kongsberg multibeam vendor format
0546_20110122_233850_melville.all.mb58.gz 32.06MB Kongsberg multibeam vendor format
0547_20110123_000852_melville.all.mb58.gz 32.19MB Kongsberg multibeam vendor format
0548_20110123_003853_melville.all.mb58.gz 32.21MB Kongsberg multibeam vendor format
0549_20110123_010855_melville.all.mb58.gz 32.21MB Kongsberg multibeam vendor format
0550_20110123_013856_melville.all.mb58.gz 32.20MB Kongsberg multibeam vendor format
0551_20110123_020858_melville.all.mb58.gz 32.13MB Kongsberg multibeam vendor format
0552_20110123_023858_melville.all.mb58.gz 32.31MB Kongsberg multibeam vendor format
0553_20110123_030859_melville.all.mb58.gz 31.76MB Kongsberg multibeam vendor format
0554_20110123_033833_melville.all.mb58.gz 32.19MB Kongsberg multibeam vendor format
0555_20110123_040834_melville.all.mb58.gz 32.20MB Kongsberg multibeam vendor format
0556_20110123_043834_melville.all.mb58.gz 32.22MB Kongsberg multibeam vendor format
0557_20110123_050836_melville.all.mb58.gz 32.23MB Kongsberg multibeam vendor format
0558_20110123_053839_melville.all.mb58.gz 32.22MB Kongsberg multibeam vendor format
0559_20110123_060840_melville.all.mb58.gz 32.23MB Kongsberg multibeam vendor format
0560_20110123_063843_melville.all.mb58.gz 32.27MB Kongsberg multibeam vendor format
0561_20110123_070847_melville.all.mb58.gz 32.26MB Kongsberg multibeam vendor format
0562_20110123_073852_melville.all.mb58.gz 32.20MB Kongsberg multibeam vendor format
0563_20110123_080857_melville.all.mb58.gz 32.11MB Kongsberg multibeam vendor format
0564_20110123_083852_melville.all.mb58.gz 32.32MB Kongsberg multibeam vendor format
0565_20110123_090853_melville.all.mb58.gz 31.74MB Kongsberg multibeam vendor format
0566_20110123_093831_melville.all.mb58.gz 32.64MB Kongsberg multibeam vendor format
0567_20110123_100846_melville.all.mb58.gz 32.09MB Kongsberg multibeam vendor format
0568_20110123_103839_melville.all.mb58.gz 32.35MB Kongsberg multibeam vendor format
0569_20110123_110847_melville.all.mb58.gz 32.03MB Kongsberg multibeam vendor format
0570_20110123_113839_melville.all.mb58.gz 32.18MB Kongsberg multibeam vendor format
0571_20110123_120839_melville.all.mb58.gz 32.20MB Kongsberg multibeam vendor format
0572_20110123_123840_melville.all.mb58.gz 32.15MB Kongsberg multibeam vendor format
0573_20110123_130839_melville.all.mb58.gz 32.70MB Kongsberg multibeam vendor format
0574_20110123_133902_melville.all.mb58.gz 32.00MB Kongsberg multibeam vendor format
0575_20110123_140851_melville.all.mb58.gz 32.20MB Kongsberg multibeam vendor format
0576_20110123_143852_melville.all.mb58.gz 32.14MB Kongsberg multibeam vendor format
0577_20110123_150850_melville.all.mb58.gz 32.39MB Kongsberg multibeam vendor format
0578_20110123_153855_melville.all.mb58.gz 32.27MB Kongsberg multibeam vendor format
0579_20110123_160900_melville.all.mb58.gz 32.21MB Kongsberg multibeam vendor format
0580_20110123_163859_melville.all.mb58.gz 31.90MB Kongsberg multibeam vendor format
0581_20110123_170837_melville.all.mb58.gz 32.16MB Kongsberg multibeam vendor format
0582_20110123_173834_melville.all.mb58.gz 32.31MB Kongsberg multibeam vendor format
0583_20110123_180836_melville.all.mb58.gz 32.21MB Kongsberg multibeam vendor format
0584_20110123_183832_melville.all.mb58.gz 32.34MB Kongsberg multibeam vendor format
0585_20110123_190836_melville.all.mb58.gz 32.28MB Kongsberg multibeam vendor format
0586_20110123_193836_melville.all.mb58.gz 32.51MB Kongsberg multibeam vendor format
0587_20110123_200852_melville.all.mb58.gz 31.90MB Kongsberg multibeam vendor format
0588_20110123_203834_melville.all.mb58.gz 32.26MB Kongsberg multibeam vendor format
0589_20110123_210836_melville.all.mb58.gz 32.40MB Kongsberg multibeam vendor format
0590_20110123_213845_melville.all.mb58.gz 32.05MB Kongsberg multibeam vendor format
0591_20110123_220831_melville.all.mb58.gz 32.61MB Kongsberg multibeam vendor format
0592_20110123_223854_melville.all.mb58.gz 31.86MB Kongsberg multibeam vendor format
0593_20110123_230839_melville.all.mb58.gz 32.64MB Kongsberg multibeam vendor format
0594_20110123_233901_melville.all.mb58.gz 32.19MB Kongsberg multibeam vendor format
0595_20110124_000856_melville.all.mb58.gz 31.98MB Kongsberg multibeam vendor format
0596_20110124_003840_melville.all.mb58.gz 32.38MB Kongsberg multibeam vendor format
0597_20110124_010842_melville.all.mb58.gz 32.35MB Kongsberg multibeam vendor format
0598_20110124_013842_melville.all.mb58.gz 32.33MB Kongsberg multibeam vendor format
0599_20110124_020841_melville.all.mb58.gz 32.44MB Kongsberg multibeam vendor format
0600_20110124_023848_melville.all.mb58.gz 32.38MB Kongsberg multibeam vendor format
0601_20110124_030850_melville.all.mb58.gz 32.25MB Kongsberg multibeam vendor format
0602_20110124_033844_melville.all.mb58.gz 32.33MB Kongsberg multibeam vendor format
0603_20110124_040843_melville.all.mb58.gz 32.46MB Kongsberg multibeam vendor format
0604_20110124_043858_melville.all.mb58.gz 32.01MB Kongsberg multibeam vendor format
0605_20110124_050845_melville.all.mb58.gz 32.52MB Kongsberg multibeam vendor format
0606_20110124_053842_melville.all.mb58.gz 32.34MB Kongsberg multibeam vendor format
0607_20110124_060836_melville.all.mb58.gz 32.69MB Kongsberg multibeam vendor format
0608_20110124_063844_melville.all.mb58.gz 32.53MB Kongsberg multibeam vendor format
0609_20110124_070854_melville.all.mb58.gz 32.49MB Kongsberg multibeam vendor format
0610_20110124_073857_melville.all.mb58.gz 32.17MB Kongsberg multibeam vendor format
0611_20110124_080840_melville.all.mb58.gz 32.39MB Kongsberg multibeam vendor format
0612_20110124_083852_melville.all.mb58.gz 32.52MB Kongsberg multibeam vendor format
0613_20110124_090903_melville.all.mb58.gz 32.33MB Kongsberg multibeam vendor format
0614_20110124_093857_melville.all.mb58.gz 32.27MB Kongsberg multibeam vendor format
0615_20110124_100855_melville.all.mb58.gz 32.41MB Kongsberg multibeam vendor format
0616_20110124_103903_melville.all.mb58.gz 32.22MB Kongsberg multibeam vendor format
0617_20110124_110858_melville.all.mb58.gz 32.50MB Kongsberg multibeam vendor format
0618_20110124_113904_melville.all.mb58.gz 31.96MB Kongsberg multibeam vendor format
0619_20110124_120838_melville.all.mb58.gz 32.80MB Kongsberg multibeam vendor format
0620_20110124_123855_melville.all.mb58.gz 32.53MB Kongsberg multibeam vendor format
0621_20110124_130904_melville.all.mb58.gz 32.14MB Kongsberg multibeam vendor format
0622_20110124_133901_melville.all.mb58.gz 32.27MB Kongsberg multibeam vendor format
0623_20110124_140856_melville.all.mb58.gz 32.37MB Kongsberg multibeam vendor format
0624_20110124_143858_melville.all.mb58.gz 32.39MB Kongsberg multibeam vendor format
0625_20110124_150901_melville.all.mb58.gz 31.89MB Kongsberg multibeam vendor format
0626_20110124_153838_melville.all.mb58.gz 32.36MB Kongsberg multibeam vendor format
0627_20110124_160839_melville.all.mb58.gz 32.39MB Kongsberg multibeam vendor format
0628_20110124_163842_melville.all.mb58.gz 32.36MB Kongsberg multibeam vendor format
0629_20110124_170843_melville.all.mb58.gz 32.45MB Kongsberg multibeam vendor format
0630_20110124_173853_melville.all.mb58.gz 32.56MB Kongsberg multibeam vendor format
0631_20110124_180859_melville.all.mb58.gz 31.88MB Kongsberg multibeam vendor format
0632_20110124_183837_melville.all.mb58.gz 32.62MB Kongsberg multibeam vendor format
0633_20110124_190855_melville.all.mb58.gz 32.50MB Kongsberg multibeam vendor format
0634_20110124_193905_melville.all.mb58.gz 31.93MB Kongsberg multibeam vendor format
0635_20110124_200844_melville.all.mb58.gz 32.06MB Kongsberg multibeam vendor format
0636_20110124_203831_melville.all.mb58.gz 32.62MB Kongsberg multibeam vendor format
0637_20110124_210849_melville.all.mb58.gz 32.00MB Kongsberg multibeam vendor format
0638_20110124_213833_melville.all.mb58.gz 32.77MB Kongsberg multibeam vendor format
0639_20110124_220901_melville.all.mb58.gz 31.67MB Kongsberg multibeam vendor format
0640_20110124_223834_melville.all.mb58.gz 32.77MB Kongsberg multibeam vendor format
0641_20110124_230856_melville.all.mb58.gz 32.19MB Kongsberg multibeam vendor format
0642_20110124_233855_melville.all.mb58.gz 32.36MB Kongsberg multibeam vendor format
0643_20110125_000903_melville.all.mb58.gz 31.70MB Kongsberg multibeam vendor format
0644_20110125_003832_melville.all.mb58.gz 32.74MB Kongsberg multibeam vendor format
0645_20110125_010857_melville.all.mb58.gz 32.03MB Kongsberg multibeam vendor format
0646_20110125_013842_melville.all.mb58.gz 32.47MB Kongsberg multibeam vendor format
0647_20110125_020855_melville.all.mb58.gz 32.10MB Kongsberg multibeam vendor format
0648_20110125_023850_melville.all.mb58.gz 32.00MB Kongsberg multibeam vendor format
0649_20110125_030841_melville.all.mb58.gz 32.40MB Kongsberg multibeam vendor format
0650_20110125_033850_melville.all.mb58.gz 32.15MB Kongsberg multibeam vendor format
0651_20110125_040849_melville.all.mb58.gz 32.19MB Kongsberg multibeam vendor format
0652_20110125_043850_melville.all.mb58.gz 32.22MB Kongsberg multibeam vendor format
0653_20110125_050853_melville.all.mb58.gz 32.20MB Kongsberg multibeam vendor format
0654_20110125_053855_melville.all.mb58.gz 32.22MB Kongsberg multibeam vendor format
0655_20110125_060858_melville.all.mb58.gz 32.18MB Kongsberg multibeam vendor format
0656_20110125_063859_melville.all.mb58.gz 32.24MB Kongsberg multibeam vendor format
0657_20110125_070902_melville.all.mb58.gz 31.76MB Kongsberg multibeam vendor format
0658_20110125_073839_melville.all.mb58.gz 32.35MB Kongsberg multibeam vendor format
0659_20110125_080850_melville.all.mb58.gz 32.38MB Kongsberg multibeam vendor format
0660_20110125_083853_melville.all.mb58.gz 32.12MB Kongsberg multibeam vendor format
0661_20110125_090852_melville.all.mb58.gz 32.00MB Kongsberg multibeam vendor format
0662_20110125_093840_melville.all.mb58.gz 32.38MB Kongsberg multibeam vendor format
0663_20110125_100854_melville.all.mb58.gz 32.10MB Kongsberg multibeam vendor format
0664_20110125_103856_melville.all.mb58.gz 32.25MB Kongsberg multibeam vendor format
0665_20110125_110900_melville.all.mb58.gz 32.26MB Kongsberg multibeam vendor format
0666_20110125_113904_melville.all.mb58.gz 31.59MB Kongsberg multibeam vendor format
0667_20110125_120831_melville.all.mb58.gz 32.22MB Kongsberg multibeam vendor format
0668_20110125_123833_melville.all.mb58.gz 32.23MB Kongsberg multibeam vendor format
0669_20110125_130835_melville.all.mb58.gz 32.26MB Kongsberg multibeam vendor format
0670_20110125_133839_melville.all.mb58.gz 32.32MB Kongsberg multibeam vendor format
0671_20110125_140849_melville.all.mb58.gz 31.99MB Kongsberg multibeam vendor format
0672_20110125_143832_melville.all.mb58.gz 32.67MB Kongsberg multibeam vendor format
0673_20110125_150859_melville.all.mb58.gz 31.66MB Kongsberg multibeam vendor format
0674_20110125_153830_melville.all.mb58.gz 32.33MB Kongsberg multibeam vendor format
0675_20110125_160838_melville.all.mb58.gz 32.33MB Kongsberg multibeam vendor format
0676_20110125_163845_melville.all.mb58.gz 32.33MB Kongsberg multibeam vendor format
0677_20110125_170853_melville.all.mb58.gz 32.33MB Kongsberg multibeam vendor format
0678_20110125_173900_melville.all.mb58.gz 32.28MB Kongsberg multibeam vendor format
0679_20110125_180905_melville.all.mb58.gz 31.66MB Kongsberg multibeam vendor format
0680_20110125_183835_melville.all.mb58.gz 32.23MB Kongsberg multibeam vendor format
0681_20110125_190832_melville.all.mb58.gz 32.50MB Kongsberg multibeam vendor format
0682_20110125_193844_melville.all.mb58.gz 32.41MB Kongsberg multibeam vendor format
0683_20110125_200853_melville.all.mb58.gz 32.33MB Kongsberg multibeam vendor format
0684_20110125_203900_melville.all.mb58.gz 31.67MB Kongsberg multibeam vendor format
0685_20110125_210830_melville.all.mb58.gz 32.33MB Kongsberg multibeam vendor format
0686_20110125_213837_melville.all.mb58.gz 32.32MB Kongsberg multibeam vendor format
0687_20110125_220844_melville.all.mb58.gz 32.28MB Kongsberg multibeam vendor format
0688_20110125_223851_melville.all.mb58.gz 32.33MB Kongsberg multibeam vendor format
0689_20110125_230858_melville.all.mb58.gz 31.66MB Kongsberg multibeam vendor format
0690_20110125_233828_melville.all.mb58.gz 32.75MB Kongsberg multibeam vendor format
0691_20110126_000900_melville.all.mb58.gz 32.18MB Kongsberg multibeam vendor format
0692_20110126_003854_melville.all.mb58.gz 32.32MB Kongsberg multibeam vendor format
0693_20110126_010901_melville.all.mb58.gz 31.68MB Kongsberg multibeam vendor format
0694_20110126_013831_melville.all.mb58.gz 32.34MB Kongsberg multibeam vendor format
0695_20110126_020840_melville.all.mb58.gz 32.35MB Kongsberg multibeam vendor format
0696_20110126_023848_melville.all.mb58.gz 32.34MB Kongsberg multibeam vendor format
0697_20110126_030856_melville.all.mb58.gz 32.32MB Kongsberg multibeam vendor format
0698_20110126_033904_melville.all.mb58.gz 31.69MB Kongsberg multibeam vendor format
0699_20110126_040836_melville.all.mb58.gz 32.38MB Kongsberg multibeam vendor format
0700_20110126_043851_melville.all.mb58.gz 32.22MB Kongsberg multibeam vendor format
0701_20110126_050858_melville.all.mb58.gz 32.16MB Kongsberg multibeam vendor format
0702_20110126_053854_melville.all.mb58.gz 32.28MB Kongsberg multibeam vendor format
0703_20110126_060858_melville.all.mb58.gz 31.94MB Kongsberg multibeam vendor format
0704_20110126_063850_melville.all.mb58.gz 32.33MB Kongsberg multibeam vendor format
0705_20110126_070856_melville.all.mb58.gz 32.02MB Kongsberg multibeam vendor format
0706_20110126_073836_melville.all.mb58.gz 32.41MB Kongsberg multibeam vendor format
0707_20110126_080848_melville.all.mb58.gz 32.25MB Kongsberg multibeam vendor format
0708_20110126_083857_melville.all.mb58.gz 31.86MB Kongsberg multibeam vendor format
0709_20110126_090841_melville.all.mb58.gz 32.31MB Kongsberg multibeam vendor format
0710_20110126_093849_melville.all.mb58.gz 32.52MB Kongsberg multibeam vendor format
0711_20110126_100858_melville.all.mb58.gz 31.92MB Kongsberg multibeam vendor format
0712_20110126_103843_melville.all.mb58.gz 32.40MB Kongsberg multibeam vendor format
0713_20110126_110849_melville.all.mb58.gz 32.33MB Kongsberg multibeam vendor format
0714_20110126_113856_melville.all.mb58.gz 31.64MB Kongsberg multibeam vendor format
0715_20110126_120829_melville.all.mb58.gz 32.64MB Kongsberg multibeam vendor format
0716_20110126_123850_melville.all.mb58.gz 32.17MB Kongsberg multibeam vendor format
0717_20110126_130849_melville.all.mb58.gz 32.33MB Kongsberg multibeam vendor format
0718_20110126_133857_melville.all.mb58.gz 31.69MB Kongsberg multibeam vendor format
0719_20110126_140828_melville.all.mb58.gz 32.33MB Kongsberg multibeam vendor format
0720_20110126_143837_melville.all.mb58.gz 32.26MB Kongsberg multibeam vendor format
0721_20110126_150846_melville.all.mb58.gz 32.26MB Kongsberg multibeam vendor format
0722_20110126_153855_melville.all.mb58.gz 32.20MB Kongsberg multibeam vendor format
0723_20110126_160904_melville.all.mb58.gz 31.69MB Kongsberg multibeam vendor format
0724_20110126_163837_melville.all.mb58.gz 32.14MB Kongsberg multibeam vendor format
0725_20110126_170835_melville.all.mb58.gz 32.43MB Kongsberg multibeam vendor format
0726_20110126_173848_melville.all.mb58.gz 32.31MB Kongsberg multibeam vendor format
0727_20110126_180858_melville.all.mb58.gz 31.72MB Kongsberg multibeam vendor format
0728_20110126_183835_melville.all.mb58.gz 32.53MB Kongsberg multibeam vendor format
0729_20110126_190854_melville.all.mb58.gz 31.93MB Kongsberg multibeam vendor format
0730_20110126_193839_melville.all.mb58.gz 32.57MB Kongsberg multibeam vendor format
0731_20110126_200901_melville.all.mb58.gz 31.81MB Kongsberg multibeam vendor format
0732_20110126_203845_melville.all.mb58.gz 31.91MB Kongsberg multibeam vendor format
0733_20110126_210829_melville.all.mb58.gz 32.53MB Kongsberg multibeam vendor format
0734_20110126_213851_melville.all.mb58.gz 31.97MB Kongsberg multibeam vendor format
0735_20110126_220842_melville.all.mb58.gz 31.86MB Kongsberg multibeam vendor format
0736_20110126_223834_melville.all.mb58.gz 32.59MB Kongsberg multibeam vendor format
0737_20110126_230857_melville.all.mb58.gz 31.77MB Kongsberg multibeam vendor format
0738_20110126_233843_melville.all.mb58.gz 31.57MB Kongsberg multibeam vendor format
0739_20110127_000828_melville.all.mb58.gz 32.31MB Kongsberg multibeam vendor format
0740_20110127_003850_melville.all.mb58.gz 31.46MB Kongsberg multibeam vendor format
0741_20110127_010836_melville.all.mb58.gz 32.33MB Kongsberg multibeam vendor format
0742_20110127_013900_melville.all.mb58.gz 31.74MB Kongsberg multibeam vendor format
0743_20110127_020846_melville.all.mb58.gz 31.85MB Kongsberg multibeam vendor format
0744_20110127_023832_melville.all.mb58.gz 32.23MB Kongsberg multibeam vendor format
0745_20110127_030840_melville.all.mb58.gz 32.32MB Kongsberg multibeam vendor format
0746_20110127_033852_melville.all.mb58.gz 31.97MB Kongsberg multibeam vendor format
0747_20110127_040843_melville.all.mb58.gz 31.91MB Kongsberg multibeam vendor format
0748_20110127_043829_melville.all.mb58.gz 32.58MB Kongsberg multibeam vendor format
0749_20110127_050851_melville.all.mb58.gz 31.90MB Kongsberg multibeam vendor format
0750_20110127_053836_melville.all.mb58.gz 32.51MB Kongsberg multibeam vendor format
0751_20110127_060859_melville.all.mb58.gz 31.88MB Kongsberg multibeam vendor format
0752_20110127_063844_melville.all.mb58.gz 31.82MB Kongsberg multibeam vendor format
0753_20110127_070830_melville.all.mb58.gz 32.32MB Kongsberg multibeam vendor format
0754_20110127_073848_melville.all.mb58.gz 31.86MB Kongsberg multibeam vendor format
0755_20110127_080833_melville.all.mb58.gz 32.47MB Kongsberg multibeam vendor format
0756_20110127_083856_melville.all.mb58.gz 32.08MB Kongsberg multibeam vendor format
0757_20110127_090851_melville.all.mb58.gz 31.89MB Kongsberg multibeam vendor format
0758_20110127_093837_melville.all.mb58.gz 32.58MB Kongsberg multibeam vendor format
0759_20110127_100901_melville.all.mb58.gz 31.91MB Kongsberg multibeam vendor format
0760_20110127_103848_melville.all.mb58.gz 31.85MB Kongsberg multibeam vendor format
0761_20110127_110835_melville.all.mb58.gz 32.58MB Kongsberg multibeam vendor format
0762_20110127_113859_melville.all.mb58.gz 31.91MB Kongsberg multibeam vendor format
0763_20110127_120845_melville.all.mb58.gz 31.95MB Kongsberg multibeam vendor format
0764_20110127_123833_melville.all.mb58.gz 32.57MB Kongsberg multibeam vendor format
0765_20110127_130857_melville.all.mb58.gz 31.71MB Kongsberg multibeam vendor format
0766_20110127_133831_melville.all.mb58.gz 32.18MB Kongsberg multibeam vendor format
0767_20110127_140838_melville.all.mb58.gz 32.47MB Kongsberg multibeam vendor format
0768_20110127_143904_melville.all.mb58.gz 31.90MB Kongsberg multibeam vendor format
0769_20110127_150853_melville.all.mb58.gz 31.96MB Kongsberg multibeam vendor format
0770_20110127_153842_melville.all.mb58.gz 31.82MB Kongsberg multibeam vendor format
0771_20110127_160830_melville.all.mb58.gz 32.64MB Kongsberg multibeam vendor format
0772_20110127_163856_melville.all.mb58.gz 31.95MB Kongsberg multibeam vendor format
0773_20110127_170844_melville.all.mb58.gz 31.92MB Kongsberg multibeam vendor format
0774_20110127_173832_melville.all.mb58.gz 32.66MB Kongsberg multibeam vendor format
0775_20110127_180859_melville.all.mb58.gz 31.63MB Kongsberg multibeam vendor format
0776_20110127_183827_melville.all.mb58.gz 32.51MB Kongsberg multibeam vendor format
0777_20110127_190848_melville.all.mb58.gz 31.94MB Kongsberg multibeam vendor format
0778_20110127_193837_melville.all.mb58.gz 32.01MB Kongsberg multibeam vendor format
0779_20110127_200828_melville.all.mb58.gz 32.69MB Kongsberg multibeam vendor format
0780_20110127_203855_melville.all.mb58.gz 32.04MB Kongsberg multibeam vendor format
0781_20110127_210845_melville.all.mb58.gz 32.04MB Kongsberg multibeam vendor format
0782_20110127_213835_melville.all.mb58.gz 32.75MB Kongsberg multibeam vendor format
0783_20110127_220903_melville.all.mb58.gz 32.12MB Kongsberg multibeam vendor format
0784_20110127_223854_melville.all.mb58.gz 31.95MB Kongsberg multibeam vendor format
0785_20110127_230845_melville.all.mb58.gz 32.04MB Kongsberg multibeam vendor format
0786_20110127_233836_melville.all.mb58.gz 32.62MB Kongsberg multibeam vendor format
0787_20110128_000904_melville.all.mb58.gz 31.91MB Kongsberg multibeam vendor format
0788_20110128_003852_melville.all.mb58.gz 32.01MB Kongsberg multibeam vendor format
0789_20110128_010843_melville.all.mb58.gz 32.08MB Kongsberg multibeam vendor format
0790_20110128_013833_melville.all.mb58.gz 32.78MB Kongsberg multibeam vendor format
0791_20110128_020900_melville.all.mb58.gz 32.18MB Kongsberg multibeam vendor format
0792_20110128_023850_melville.all.mb58.gz 32.07MB Kongsberg multibeam vendor format
0793_20110128_030840_melville.all.mb58.gz 32.13MB Kongsberg multibeam vendor format
0794_20110128_033830_melville.all.mb58.gz 32.86MB Kongsberg multibeam vendor format
0795_20110128_040857_melville.all.mb58.gz 32.17MB Kongsberg multibeam vendor format
0796_20110128_043848_melville.all.mb58.gz 31.83MB Kongsberg multibeam vendor format
0797_20110128_050832_melville.all.mb58.gz 32.33MB Kongsberg multibeam vendor format
0798_20110128_053840_melville.all.mb58.gz 32.43MB Kongsberg multibeam vendor format
0799_20110128_060856_melville.all.mb58.gz 31.73MB Kongsberg multibeam vendor format
0800_20110128_063829_melville.all.mb58.gz 32.81MB Kongsberg multibeam vendor format
0801_20110128_070857_melville.all.mb58.gz 32.16MB Kongsberg multibeam vendor format
0802_20110128_073848_melville.all.mb58.gz 32.12MB Kongsberg multibeam vendor format
0803_20110128_080839_melville.all.mb58.gz 32.12MB Kongsberg multibeam vendor format
0804_20110128_083830_melville.all.mb58.gz 32.75MB Kongsberg multibeam vendor format
0805_20110128_090900_melville.all.mb58.gz 32.07MB Kongsberg multibeam vendor format
0806_20110128_093854_melville.all.mb58.gz 32.20MB Kongsberg multibeam vendor format
0807_20110128_100853_melville.all.mb58.gz 32.02MB Kongsberg multibeam vendor format
0808_20110128_103851_melville.all.mb58.gz 31.95MB Kongsberg multibeam vendor format
0809_20110128_110842_melville.all.mb58.gz 32.15MB Kongsberg multibeam vendor format
0810_20110128_113841_melville.all.mb58.gz 32.54MB Kongsberg multibeam vendor format
0811_20110128_120902_melville.all.mb58.gz 31.95MB Kongsberg multibeam vendor format
0812_20110128_123852_melville.all.mb58.gz 32.23MB Kongsberg multibeam vendor format
0813_20110128_130855_melville.all.mb58.gz 32.24MB Kongsberg multibeam vendor format
0814_20110128_133901_melville.all.mb58.gz 31.61MB Kongsberg multibeam vendor format
0815_20110128_140830_melville.all.mb58.gz 32.25MB Kongsberg multibeam vendor format
0816_20110128_143839_melville.all.mb58.gz 32.26MB Kongsberg multibeam vendor format
0817_20110128_150852_melville.all.mb58.gz 31.87MB Kongsberg multibeam vendor format
0818_20110128_153829_melville.all.mb58.gz 32.41MB Kongsberg multibeam vendor format
0819_20110128_160847_melville.all.mb58.gz 31.88MB Kongsberg multibeam vendor format
0820_20110128_163852_melville.all.mb58.gz 31.59MB Kongsberg multibeam vendor format
0821_20110128_170830_melville.all.mb58.gz 32.11MB Kongsberg multibeam vendor format
0822_20110128_173828_melville.all.mb58.gz 32.30MB Kongsberg multibeam vendor format
0823_20110128_180850_melville.all.mb58.gz 31.62MB Kongsberg multibeam vendor format
0824_20110128_183833_melville.all.mb58.gz 32.27MB Kongsberg multibeam vendor format
0825_20110128_190850_melville.all.mb58.gz 31.63MB Kongsberg multibeam vendor format
0826_20110128_193832_melville.all.mb58.gz 32.28MB Kongsberg multibeam vendor format
0827_20110128_200850_melville.all.mb58.gz 31.67MB Kongsberg multibeam vendor format
0828_20110128_203832_melville.all.mb58.gz 32.34MB Kongsberg multibeam vendor format
0829_20110128_210850_melville.all.mb58.gz 31.61MB Kongsberg multibeam vendor format
0830_20110128_213829_melville.all.mb58.gz 32.31MB Kongsberg multibeam vendor format
0831_20110128_220846_melville.all.mb58.gz 32.25MB Kongsberg multibeam vendor format
0832_20110128_223902_melville.all.mb58.gz 31.69MB Kongsberg multibeam vendor format
0833_20110128_230842_melville.all.mb58.gz 32.42MB Kongsberg multibeam vendor format
0834_20110128_233901_melville.all.mb58.gz 31.77MB Kongsberg multibeam vendor format
0835_20110129_000844_melville.all.mb58.gz 32.43MB Kongsberg multibeam vendor format
0836_20110129_003904_melville.all.mb58.gz 31.42MB Kongsberg multibeam vendor format
0837_20110129_010829_melville.all.mb58.gz 31.97MB Kongsberg multibeam vendor format
0838_20110129_013826_melville.all.mb58.gz 32.18MB Kongsberg multibeam vendor format
0839_20110129_020840_melville.all.mb58.gz 32.35MB Kongsberg multibeam vendor format
0840_20110129_023900_melville.all.mb58.gz 31.65MB Kongsberg multibeam vendor format
0841_20110129_030841_melville.all.mb58.gz 32.33MB Kongsberg multibeam vendor format
0842_20110129_033901_melville.all.mb58.gz 31.47MB Kongsberg multibeam vendor format
0843_20110129_040844_melville.all.mb58.gz 31.51MB Kongsberg multibeam vendor format
0844_20110129_043828_melville.all.mb58.gz 32.28MB Kongsberg multibeam vendor format
0845_20110129_050852_melville.all.mb58.gz 31.70MB Kongsberg multibeam vendor format
0846_20110129_053835_melville.all.mb58.gz 32.35MB Kongsberg multibeam vendor format
0847_20110129_060857_melville.all.mb58.gz 31.39MB Kongsberg multibeam vendor format
0848_20110129_063841_melville.all.mb58.gz 32.13MB Kongsberg multibeam vendor format
0849_20110129_070853_melville.all.mb58.gz 31.75MB Kongsberg multibeam vendor format
0850_20110129_073837_melville.all.mb58.gz 32.17MB Kongsberg multibeam vendor format
0851_20110129_080846_melville.all.mb58.gz 31.56MB Kongsberg multibeam vendor format
0852_20110129_083828_melville.all.mb58.gz 32.00MB Kongsberg multibeam vendor format
0853_20110129_090833_melville.all.mb58.gz 32.36MB Kongsberg multibeam vendor format
0854_20110129_093900_melville.all.mb58.gz 31.18MB Kongsberg multibeam vendor format
0855_20110129_100830_melville.all.mb58.gz 32.28MB Kongsberg multibeam vendor format
0856_20110129_103852_melville.all.mb58.gz 31.42MB Kongsberg multibeam vendor format
0857_20110129_110834_melville.all.mb58.gz 32.06MB Kongsberg multibeam vendor format
0858_20110129_113848_melville.all.mb58.gz 31.45MB Kongsberg multibeam vendor format
0859_20110129_120826_melville.all.mb58.gz 32.11MB Kongsberg multibeam vendor format
0860_20110129_123839_melville.all.mb58.gz 32.20MB Kongsberg multibeam vendor format
0861_20110129_130856_melville.all.mb58.gz 31.46MB Kongsberg multibeam vendor format
0862_20110129_133840_melville.all.mb58.gz 32.05MB Kongsberg multibeam vendor format
0863_20110129_140854_melville.all.mb58.gz 31.80MB Kongsberg multibeam vendor format
0864_20110129_143901_melville.all.mb58.gz 31.37MB Kongsberg multibeam vendor format
0865_20110129_150844_melville.all.mb58.gz 32.07MB Kongsberg multibeam vendor format
0866_20110129_153900_melville.all.mb58.gz 31.45MB Kongsberg multibeam vendor format
0867_20110129_160839_melville.all.mb58.gz 31.61MB Kongsberg multibeam vendor format
0868_20110129_163842_melville.all.mb58.gz 31.31MB Kongsberg multibeam vendor format
0869_20110129_170826_melville.all.mb58.gz 31.80MB Kongsberg multibeam vendor format
0870_20110129_173837_melville.all.mb58.gz 31.85MB Kongsberg multibeam vendor format
0871_20110129_180853_melville.all.mb58.gz 31.69MB Kongsberg multibeam vendor format
0872_20110129_183851_melville.all.mb58.gz 31.48MB Kongsberg multibeam vendor format
0873_20110129_190841_melville.all.mb58.gz 31.50MB Kongsberg multibeam vendor format
0874_20110129_193832_melville.all.mb58.gz 31.92MB Kongsberg multibeam vendor format
0875_20110129_200839_melville.all.mb58.gz 32.16MB Kongsberg multibeam vendor format
0876_20110129_203852_melville.all.mb58.gz 32.11MB Kongsberg multibeam vendor format
0877_20110129_210826_melville.all.mb58.gz 32.12MB Kongsberg multibeam vendor format
0878_20110129_213829_melville.all.mb58.gz 32.74MB Kongsberg multibeam vendor format
0879_20110129_220857_melville.all.mb58.gz 31.21MB Kongsberg multibeam vendor format
0880_20110129_223835_melville.all.mb58.gz 32.73MB Kongsberg multibeam vendor format
0881_20110129_230848_melville.all.mb58.gz 33.28MB Kongsberg multibeam vendor format
0882_20110129_233834_melville.all.mb58.gz 36.82MB Kongsberg multibeam vendor format
0883_20110130_000841_melville.all.mb58.gz 39.89MB Kongsberg multibeam vendor format
0884_20110130_003833_melville.all.mb58.gz 41.24MB Kongsberg multibeam vendor format
0885_20110130_010842_melville.all.mb58.gz 41.12MB Kongsberg multibeam vendor format
0886_20110130_013834_melville.all.mb58.gz 40.11MB Kongsberg multibeam vendor format
0887_20110130_020833_melville.all.mb58.gz 40.82MB Kongsberg multibeam vendor format
0888_20110130_023835_melville.all.mb58.gz 40.58MB Kongsberg multibeam vendor format
0889_20110130_030831_melville.all.mb58.gz 41.10MB Kongsberg multibeam vendor format
0890_20110130_033835_melville.all.mb58.gz 39.89MB Kongsberg multibeam vendor format
0891_20110130_040840_melville.all.mb58.gz 39.52MB Kongsberg multibeam vendor format
0892_20110130_043836_melville.all.mb58.gz 37.97MB Kongsberg multibeam vendor format
0893_20110130_050829_melville.all.mb58.gz 37.58MB Kongsberg multibeam vendor format
0894_20110130_053826_melville.all.mb58.gz 33.93MB Kongsberg multibeam vendor format
0895_20110130_060844_melville.all.mb58.gz 33.21MB Kongsberg multibeam vendor format
0896_20110130_063840_melville.all.mb58.gz 33.38MB Kongsberg multibeam vendor format
0897_20110130_070848_melville.all.mb58.gz 34.04MB Kongsberg multibeam vendor format
0898_20110130_073852_melville.all.mb58.gz 42.37MB Kongsberg multibeam vendor format
0899_20110130_080828_melville.all.mb58.gz 46.91MB Kongsberg multibeam vendor format
0900_20110130_083825_melville.all.mb58.gz 45.91MB Kongsberg multibeam vendor format
0901_20110130_090826_melville.all.mb58.gz 48.92MB Kongsberg multibeam vendor format
0902_20110130_093825_melville.all.mb58.gz 49.51MB Kongsberg multibeam vendor format
0903_20110130_100830_melville.all.mb58.gz 49.24MB Kongsberg multibeam vendor format
0904_20110130_103825_melville.all.mb58.gz 49.22MB Kongsberg multibeam vendor format
0905_20110130_110830_melville.all.mb58.gz 49.13MB Kongsberg multibeam vendor format
0906_20110130_113834_melville.all.mb58.gz 47.89MB Kongsberg multibeam vendor format
0907_20110130_120830_melville.all.mb58.gz 47.47MB Kongsberg multibeam vendor format
0908_20110130_123837_melville.all.mb58.gz 43.72MB Kongsberg multibeam vendor format
0909_20110130_130829_melville.all.mb58.gz 43.17MB Kongsberg multibeam vendor format
0910_20110130_133832_melville.all.mb58.gz 50.95MB Kongsberg multibeam vendor format
0911_20110130_140828_melville.all.mb58.gz 59.18MB Kongsberg multibeam vendor format
0912_20110130_143825_melville.all.mb58.gz 111.38MB Kongsberg multibeam vendor format
0913_20110130_150825_melville.all.mb58.gz 91.16MB Kongsberg multibeam vendor format
0914_20110130_153825_melville.all.mb58.gz 86.20MB Kongsberg multibeam vendor format
0915_20110130_160826_melville.all.mb58.gz 86.08MB Kongsberg multibeam vendor format
0916_20110130_163826_melville.all.mb58.gz 83.79MB Kongsberg multibeam vendor format
0917_20110130_170825_melville.all.mb58.gz 84.39MB Kongsberg multibeam vendor format
0918_20110130_173825_melville.all.mb58.gz 84.30MB Kongsberg multibeam vendor format
0919_20110130_180826_melville.all.mb58.gz 84.28MB Kongsberg multibeam vendor format
0920_20110130_183826_melville.all.mb58.gz 83.61MB Kongsberg multibeam vendor format
0921_20110130_190826_melville.all.mb58.gz 84.60MB Kongsberg multibeam vendor format
0922_20110130_193825_melville.all.mb58.gz 89.72MB Kongsberg multibeam vendor format
0923_20110130_200825_melville.all.mb58.gz 86.09MB Kongsberg multibeam vendor format
0924_20110130_203824_melville.all.mb58.gz 92.83MB Kongsberg multibeam vendor format
0925_20110130_210825_melville.all.mb58.gz 101.98MB Kongsberg multibeam vendor format
0926_20110130_213825_melville.all.mb58.gz 144.54MB Kongsberg multibeam vendor format
0927_20110130_220825_melville.all.mb58.gz 124.06MB Kongsberg multibeam vendor format
0928_20110130_223825_melville.all.mb58.gz 83.72MB Kongsberg multibeam vendor format
0929_20110130_230826_melville.all.mb58.gz 77.82MB Kongsberg multibeam vendor format
0930_20110130_233825_melville.all.mb58.gz 99.32MB Kongsberg multibeam vendor format
0931_20110131_000824_melville.all.mb58.gz 116.95MB Kongsberg multibeam vendor format
0932_20110131_003825_melville.all.mb58.gz 109.29MB Kongsberg multibeam vendor format
0933_20110131_010824_melville.all.mb58.gz 105.16MB Kongsberg multibeam vendor format
0934_20110131_013826_melville.all.mb58.gz 93.59MB Kongsberg multibeam vendor format
0935_20110131_020825_melville.all.mb58.gz 77.56MB Kongsberg multibeam vendor format
0936_20110131_023826_melville.all.mb58.gz 49.02MB Kongsberg multibeam vendor format
0937_20110131_030828_melville.all.mb58.gz 42.80MB Kongsberg multibeam vendor format
0938_20110131_033844_melville.all.mb58.gz 40.36MB Kongsberg multibeam vendor format
0939_20110131_040828_melville.all.mb58.gz 43.22MB Kongsberg multibeam vendor format
0940_20110131_043833_melville.all.mb58.gz 39.83MB Kongsberg multibeam vendor format
0941_20110131_050828_melville.all.mb58.gz 35.37MB Kongsberg multibeam vendor format
0942_20110131_053850_melville.all.mb58.gz 32.56MB Kongsberg multibeam vendor format
0943_20110131_060847_melville.all.mb58.gz 32.09MB Kongsberg multibeam vendor format
0944_20110131_063839_melville.all.mb58.gz 32.30MB Kongsberg multibeam vendor format
0945_20110131_070837_melville.all.mb58.gz 32.10MB Kongsberg multibeam vendor format
0946_20110131_073834_melville.all.mb58.gz 32.14MB Kongsberg multibeam vendor format
0947_20110131_080844_melville.all.mb58.gz 31.92MB Kongsberg multibeam vendor format
0948_20110131_083826_melville.all.mb58.gz 32.48MB Kongsberg multibeam vendor format
0949_20110131_090834_melville.all.mb58.gz 32.89MB Kongsberg multibeam vendor format
0950_20110131_093854_melville.all.mb58.gz 32.06MB Kongsberg multibeam vendor format
0951_20110131_100853_melville.all.mb58.gz 32.38MB Kongsberg multibeam vendor format
0952_20110131_103856_melville.all.mb58.gz 31.39MB Kongsberg multibeam vendor format
0953_20110131_110834_melville.all.mb58.gz 32.84MB Kongsberg multibeam vendor format
0954_20110131_113844_melville.all.mb58.gz 32.39MB Kongsberg multibeam vendor format
0955_20110131_120828_melville.all.mb58.gz 32.63MB Kongsberg multibeam vendor format
0956_20110131_123824_melville.all.mb58.gz 32.43MB Kongsberg multibeam vendor format
0957_20110131_130829_melville.all.mb58.gz 31.80MB Kongsberg multibeam vendor format
0958_20110131_133833_melville.all.mb58.gz 32.59MB Kongsberg multibeam vendor format
0959_20110131_140826_melville.all.mb58.gz 32.64MB Kongsberg multibeam vendor format
0960_20110131_143851_melville.all.mb58.gz 31.46MB Kongsberg multibeam vendor format
0961_20110131_150831_melville.all.mb58.gz 32.28MB Kongsberg multibeam vendor format
0962_20110131_153849_melville.all.mb58.gz 32.15MB Kongsberg multibeam vendor format
0963_20110131_160836_melville.all.mb58.gz 32.27MB Kongsberg multibeam vendor format
0964_20110131_163835_melville.all.mb58.gz 31.84MB Kongsberg multibeam vendor format
0965_20110131_170824_melville.all.mb58.gz 32.20MB Kongsberg multibeam vendor format
0966_20110131_173837_melville.all.mb58.gz 32.89MB Kongsberg multibeam vendor format
0967_20110131_180846_melville.all.mb58.gz 32.24MB Kongsberg multibeam vendor format
0968_20110131_183824_melville.all.mb58.gz 32.62MB Kongsberg multibeam vendor format
0969_20110131_190825_melville.all.mb58.gz 33.22MB Kongsberg multibeam vendor format
0970_20110131_193832_melville.all.mb58.gz 35.02MB Kongsberg multibeam vendor format
0971_20110131_200833_melville.all.mb58.gz 36.75MB Kongsberg multibeam vendor format
0972_20110131_203827_melville.all.mb58.gz 34.04MB Kongsberg multibeam vendor format
0973_20110131_210829_melville.all.mb58.gz 38.09MB Kongsberg multibeam vendor format
0974_20110131_213855_melville.all.mb58.gz 32.06MB Kongsberg multibeam vendor format
0975_20110131_220824_melville.all.mb58.gz 32.69MB Kongsberg multibeam vendor format
0976_20110131_223829_melville.all.mb58.gz 33.55MB Kongsberg multibeam vendor format
0977_20110131_230838_melville.all.mb58.gz 32.46MB Kongsberg multibeam vendor format
0978_20110131_233827_melville.all.mb58.gz 33.08MB Kongsberg multibeam vendor format
0979_20110201_000839_melville.all.mb58.gz 32.56MB Kongsberg multibeam vendor format
0980_20110201_003852_melville.all.mb58.gz 32.37MB Kongsberg multibeam vendor format
0981_20110201_010854_melville.all.mb58.gz 32.47MB Kongsberg multibeam vendor format
0982_20110201_013841_melville.all.mb58.gz 32.19MB Kongsberg multibeam vendor format
0983_20110201_020825_melville.all.mb58.gz 33.10MB Kongsberg multibeam vendor format
0984_20110201_023844_melville.all.mb58.gz 32.52MB Kongsberg multibeam vendor format
0985_20110201_030832_melville.all.mb58.gz 32.70MB Kongsberg multibeam vendor format
0986_20110201_033835_melville.all.mb58.gz 33.41MB Kongsberg multibeam vendor format
0987_20110201_040837_melville.all.mb58.gz 32.87MB Kongsberg multibeam vendor format
0988_20110201_043838_melville.all.mb58.gz 33.24MB Kongsberg multibeam vendor format
0989_20110201_050845_melville.all.mb58.gz 32.85MB Kongsberg multibeam vendor format
0990_20110201_053831_melville.all.mb58.gz 33.20MB Kongsberg multibeam vendor format
0991_20110201_060825_melville.all.mb58.gz 33.17MB Kongsberg multibeam vendor format
0992_20110201_063827_melville.all.mb58.gz 33.43MB Kongsberg multibeam vendor format
0993_20110201_070838_melville.all.mb58.gz 33.08MB Kongsberg multibeam vendor format
0994_20110201_073828_melville.all.mb58.gz 33.16MB Kongsberg multibeam vendor format
0995_20110201_080835_melville.all.mb58.gz 33.35MB Kongsberg multibeam vendor format
0996_20110201_083836_melville.all.mb58.gz 33.72MB Kongsberg multibeam vendor format
0997_20110201_090846_melville.all.mb58.gz 33.04MB Kongsberg multibeam vendor format
0998_20110201_093827_melville.all.mb58.gz 33.37MB Kongsberg multibeam vendor format
0999_20110201_100825_melville.all.mb58.gz 33.30MB Kongsberg multibeam vendor format
1000_20110201_103824_melville.all.mb58.gz 33.80MB Kongsberg multibeam vendor format
1001_20110201_110849_melville.all.mb58.gz 33.12MB Kongsberg multibeam vendor format
1002_20110201_113844_melville.all.mb58.gz 33.44MB Kongsberg multibeam vendor format
1003_20110201_120834_melville.all.mb58.gz 33.70MB Kongsberg multibeam vendor format
1004_20110201_123838_melville.all.mb58.gz 33.09MB Kongsberg multibeam vendor format
1005_20110201_130839_melville.all.mb58.gz 33.16MB Kongsberg multibeam vendor format
1006_20110201_133832_melville.all.mb58.gz 34.05MB Kongsberg multibeam vendor format
1007_20110201_140826_melville.all.mb58.gz 36.64MB Kongsberg multibeam vendor format
1008_20110201_143832_melville.all.mb58.gz 33.55MB Kongsberg multibeam vendor format
1009_20110201_150830_melville.all.mb58.gz 33.67MB Kongsberg multibeam vendor format
1010_20110201_153830_melville.all.mb58.gz 32.83MB Kongsberg multibeam vendor format
1011_20110201_160833_melville.all.mb58.gz 37.91MB Kongsberg multibeam vendor format
1012_20110201_163829_melville.all.mb58.gz 58.49MB Kongsberg multibeam vendor format
1013_20110201_170825_melville.all.mb58.gz 57.06MB Kongsberg multibeam vendor format
1014_20110201_173827_melville.all.mb58.gz 57.27MB Kongsberg multibeam vendor format
1015_20110201_180823_melville.all.mb58.gz 59.14MB Kongsberg multibeam vendor format
1016_20110201_183825_melville.all.mb58.gz 64.41MB Kongsberg multibeam vendor format
1017_20110201_190825_melville.all.mb58.gz 65.64MB Kongsberg multibeam vendor format
1018_20110201_193826_melville.all.mb58.gz 59.89MB Kongsberg multibeam vendor format
1019_20110201_200832_melville.all.mb58.gz 35.82MB Kongsberg multibeam vendor format
1020_20110201_203848_melville.all.mb58.gz 32.02MB Kongsberg multibeam vendor format
1021_20110201_210840_melville.all.mb58.gz 31.21MB Kongsberg multibeam vendor format
1022_20110201_213836_melville.all.mb58.gz 38.57MB Kongsberg multibeam vendor format
1023_20110201_220841_melville.all.mb58.gz 38.75MB Kongsberg multibeam vendor format
1024_20110201_223838_melville.all.mb58.gz 38.67MB Kongsberg multibeam vendor format
1025_20110201_230837_melville.all.mb58.gz 38.16MB Kongsberg multibeam vendor format
1026_20110201_233824_melville.all.mb58.gz 37.78MB Kongsberg multibeam vendor format
1027_20110202_000844_melville.all.mb58.gz 37.67MB Kongsberg multibeam vendor format
1028_20110202_003846_melville.all.mb58.gz 31.64MB Kongsberg multibeam vendor format
1029_20110202_010843_melville.all.mb58.gz 32.01MB Kongsberg multibeam vendor format
1030_20110202_013836_melville.all.mb58.gz 32.03MB Kongsberg multibeam vendor format
1031_20110202_020825_melville.all.mb58.gz 31.94MB Kongsberg multibeam vendor format
1032_20110202_023833_melville.all.mb58.gz 32.21MB Kongsberg multibeam vendor format
1033_20110202_030835_melville.all.mb58.gz 33.20MB Kongsberg multibeam vendor format
1034_20110202_033834_melville.all.mb58.gz 33.87MB Kongsberg multibeam vendor format
1035_20110202_040835_melville.all.mb58.gz 33.78MB Kongsberg multibeam vendor format
1036_20110202_043829_melville.all.mb58.gz 32.70MB Kongsberg multibeam vendor format
1037_20110202_050825_melville.all.mb58.gz 33.73MB Kongsberg multibeam vendor format
1038_20110202_053841_melville.all.mb58.gz 32.81MB Kongsberg multibeam vendor format
1039_20110202_060849_melville.all.mb58.gz 32.45MB Kongsberg multibeam vendor format
1040_20110202_063840_melville.all.mb58.gz 31.81MB Kongsberg multibeam vendor format
1041_20110202_070834_melville.all.mb58.gz 32.46MB Kongsberg multibeam vendor format
1042_20110202_073824_melville.all.mb58.gz 33.09MB Kongsberg multibeam vendor format
1043_20110202_080828_melville.all.mb58.gz 32.91MB Kongsberg multibeam vendor format
1044_20110202_083827_melville.all.mb58.gz 32.58MB Kongsberg multibeam vendor format
1045_20110202_090824_melville.all.mb58.gz 32.83MB Kongsberg multibeam vendor format
1046_20110202_093839_melville.all.mb58.gz 32.81MB Kongsberg multibeam vendor format
1047_20110202_100848_melville.all.mb58.gz 32.43MB Kongsberg multibeam vendor format
1048_20110202_103846_melville.all.mb58.gz 32.29MB Kongsberg multibeam vendor format
1049_20110202_110847_melville.all.mb58.gz 32.21MB Kongsberg multibeam vendor format
1050_20110202_113829_melville.all.mb58.gz 32.69MB Kongsberg multibeam vendor format
1051_20110202_120829_melville.all.mb58.gz 32.74MB Kongsberg multibeam vendor format
1052_20110202_123836_melville.all.mb58.gz 32.63MB Kongsberg multibeam vendor format
1053_20110202_130833_melville.all.mb58.gz 32.37MB Kongsberg multibeam vendor format
1054_20110202_133835_melville.all.mb58.gz 32.90MB Kongsberg multibeam vendor format
1055_20110202_140841_melville.all.mb58.gz 32.80MB Kongsberg multibeam vendor format
1056_20110202_143836_melville.all.mb58.gz 32.97MB Kongsberg multibeam vendor format
1057_20110202_150841_melville.all.mb58.gz 32.73MB Kongsberg multibeam vendor format
1058_20110202_153848_melville.all.mb58.gz 32.21MB Kongsberg multibeam vendor format
1059_20110202_160823_melville.all.mb58.gz 32.77MB Kongsberg multibeam vendor format
1060_20110202_163823_melville.all.mb58.gz 33.18MB Kongsberg multibeam vendor format
1061_20110202_170845_melville.all.mb58.gz 32.82MB Kongsberg multibeam vendor format
1062_20110202_173844_melville.all.mb58.gz 32.49MB Kongsberg multibeam vendor format
1063_20110202_180830_melville.all.mb58.gz 33.15MB Kongsberg multibeam vendor format
1064_20110202_183847_melville.all.mb58.gz 33.16MB Kongsberg multibeam vendor format
1065_20110202_190837_melville.all.mb58.gz 36.30MB Kongsberg multibeam vendor format
1066_20110202_193839_melville.all.mb58.gz 38.05MB Kongsberg multibeam vendor format
1067_20110202_200822_melville.all.mb58.gz 36.35MB Kongsberg multibeam vendor format
1068_20110202_203822_melville.all.mb58.gz 39.06MB Kongsberg multibeam vendor format
1069_20110202_210824_melville.all.mb58.gz 40.31MB Kongsberg multibeam vendor format
1070_20110202_213825_melville.all.mb58.gz 41.25MB Kongsberg multibeam vendor format
1071_20110202_220829_melville.all.mb58.gz 43.04MB Kongsberg multibeam vendor format
1072_20110202_223835_melville.all.mb58.gz 36.86MB Kongsberg multibeam vendor format
1073_20110202_230823_melville.all.mb58.gz 36.33MB Kongsberg multibeam vendor format
1074_20110202_233828_melville.all.mb58.gz 33.90MB Kongsberg multibeam vendor format
1075_20110203_000835_melville.all.mb58.gz 32.39MB Kongsberg multibeam vendor format
1076_20110203_003825_melville.all.mb58.gz 33.13MB Kongsberg multibeam vendor format
1077_20110203_010846_melville.all.mb58.gz 32.92MB Kongsberg multibeam vendor format
1078_20110203_013851_melville.all.mb58.gz 32.44MB Kongsberg multibeam vendor format
1079_20110203_020832_melville.all.mb58.gz 32.59MB Kongsberg multibeam vendor format
1080_20110203_023821_melville.all.mb58.gz 33.14MB Kongsberg multibeam vendor format
1081_20110203_030842_melville.all.mb58.gz 32.50MB Kongsberg multibeam vendor format
1082_20110203_033825_melville.all.mb58.gz 33.20MB Kongsberg multibeam vendor format
1083_20110203_040850_melville.all.mb58.gz 32.37MB Kongsberg multibeam vendor format
1084_20110203_043825_melville.all.mb58.gz 33.25MB Kongsberg multibeam vendor format
1085_20110203_050850_melville.all.mb58.gz 32.56MB Kongsberg multibeam vendor format
1086_20110203_053840_melville.all.mb58.gz 32.39MB Kongsberg multibeam vendor format
1087_20110203_060824_melville.all.mb58.gz 32.84MB Kongsberg multibeam vendor format
1088_20110203_063833_melville.all.mb58.gz 32.75MB Kongsberg multibeam vendor format
1089_20110203_070830_melville.all.mb58.gz 33.05MB Kongsberg multibeam vendor format
1090_20110203_073846_melville.all.mb58.gz 32.46MB Kongsberg multibeam vendor format
1091_20110203_080830_melville.all.mb58.gz 33.02MB Kongsberg multibeam vendor format
1092_20110203_083844_melville.all.mb58.gz 32.56MB Kongsberg multibeam vendor format
1093_20110203_090848_melville.all.mb58.gz 31.90MB Kongsberg multibeam vendor format
1094_20110203_093838_melville.all.mb58.gz 31.68MB Kongsberg multibeam vendor format
1095_20110203_100825_melville.all.mb58.gz 32.61MB Kongsberg multibeam vendor format
1096_20110203_103852_melville.all.mb58.gz 31.85MB Kongsberg multibeam vendor format
1097_20110203_110853_melville.all.mb58.gz 31.32MB Kongsberg multibeam vendor format
1098_20110203_113829_melville.all.mb58.gz 32.04MB Kongsberg multibeam vendor format
1099_20110203_120832_melville.all.mb58.gz 32.25MB Kongsberg multibeam vendor format
1100_20110203_123835_melville.all.mb58.gz 32.46MB Kongsberg multibeam vendor format
1101_20110203_130836_melville.all.mb58.gz 32.49MB Kongsberg multibeam vendor format
1102_20110203_133836_melville.all.mb58.gz 32.23MB Kongsberg multibeam vendor format
1103_20110203_140835_melville.all.mb58.gz 32.34MB Kongsberg multibeam vendor format
1104_20110203_143835_melville.all.mb58.gz 32.33MB Kongsberg multibeam vendor format
1105_20110203_150834_melville.all.mb58.gz 32.01MB Kongsberg multibeam vendor format
1106_20110203_153833_melville.all.mb58.gz 32.34MB Kongsberg multibeam vendor format
1107_20110203_160830_melville.all.mb58.gz 32.21MB Kongsberg multibeam vendor format
1108_20110203_163828_melville.all.mb58.gz 32.27MB Kongsberg multibeam vendor format
1109_20110203_170825_melville.all.mb58.gz 32.26MB Kongsberg multibeam vendor format
1110_20110203_173822_melville.all.mb58.gz 32.34MB Kongsberg multibeam vendor format
1111_20110203_180820_melville.all.mb58.gz 32.90MB Kongsberg multibeam vendor format
1112_20110203_183856_melville.all.mb58.gz 32.22MB Kongsberg multibeam vendor format
1113_20110203_190854_melville.all.mb58.gz 32.12MB Kongsberg multibeam vendor format
1114_20110203_193851_melville.all.mb58.gz 32.19MB Kongsberg multibeam vendor format
1115_20110203_200848_melville.all.mb58.gz 32.22MB Kongsberg multibeam vendor format
1116_20110203_203845_melville.all.mb58.gz 32.26MB Kongsberg multibeam vendor format
1117_20110203_210843_melville.all.mb58.gz 32.17MB Kongsberg multibeam vendor format
1118_20110203_213840_melville.all.mb58.gz 32.44MB Kongsberg multibeam vendor format
1119_20110203_220836_melville.all.mb58.gz 32.45MB Kongsberg multibeam vendor format
1120_20110203_223833_melville.all.mb58.gz 32.38MB Kongsberg multibeam vendor format
1121_20110203_230829_melville.all.mb58.gz 32.22MB Kongsberg multibeam vendor format
1122_20110203_233827_melville.all.mb58.gz 31.87MB Kongsberg multibeam vendor format
1123_20110204_000822_melville.all.mb58.gz 32.39MB Kongsberg multibeam vendor format
1124_20110204_003844_melville.all.mb58.gz 31.54MB Kongsberg multibeam vendor format
1125_20110204_010824_melville.all.mb58.gz 32.08MB Kongsberg multibeam vendor format
1126_20110204_013842_melville.all.mb58.gz 31.81MB Kongsberg multibeam vendor format
1127_20110204_020841_melville.all.mb58.gz 31.77MB Kongsberg multibeam vendor format
1128_20110204_023839_melville.all.mb58.gz 31.60MB Kongsberg multibeam vendor format
1129_20110204_030834_melville.all.mb58.gz 31.54MB Kongsberg multibeam vendor format
1130_20110204_033825_melville.all.mb58.gz 32.15MB Kongsberg multibeam vendor format
1131_20110204_040838_melville.all.mb58.gz 32.10MB Kongsberg multibeam vendor format
1132_20110204_043851_melville.all.mb58.gz 31.99MB Kongsberg multibeam vendor format
1133_20110204_050854_melville.all.mb58.gz 31.62MB Kongsberg multibeam vendor format
1134_20110204_053833_melville.all.mb58.gz 32.54MB Kongsberg multibeam vendor format
1135_20110204_060855_melville.all.mb58.gz 31.70MB Kongsberg multibeam vendor format
1136_20110204_063845_melville.all.mb58.gz 31.74MB Kongsberg multibeam vendor format
1137_20110204_070843_melville.all.mb58.gz 31.65MB Kongsberg multibeam vendor format
1138_20110204_073833_melville.all.mb58.gz 31.67MB Kongsberg multibeam vendor format
1139_20110204_080833_melville.all.mb58.gz 31.66MB Kongsberg multibeam vendor format
1140_20110204_083826_melville.all.mb58.gz 32.10MB Kongsberg multibeam vendor format
1141_20110204_090839_melville.all.mb58.gz 31.75MB Kongsberg multibeam vendor format
1142_20110204_093836_melville.all.mb58.gz 31.78MB Kongsberg multibeam vendor format
1143_20110204_100834_melville.all.mb58.gz 31.70MB Kongsberg multibeam vendor format
1144_20110204_103819_melville.all.mb58.gz 32.37MB Kongsberg multibeam vendor format
1145_20110204_110849_melville.all.mb58.gz 31.55MB Kongsberg multibeam vendor format
1146_20110204_113836_melville.all.mb58.gz 31.67MB Kongsberg multibeam vendor format
1147_20110204_120834_melville.all.mb58.gz 31.65MB Kongsberg multibeam vendor format
1148_20110204_123830_melville.all.mb58.gz 31.86MB Kongsberg multibeam vendor format
1149_20110204_130828_melville.all.mb58.gz 31.92MB Kongsberg multibeam vendor format
1150_20110204_133825_melville.all.mb58.gz 32.16MB Kongsberg multibeam vendor format
1151_20110204_140839_melville.all.mb58.gz 31.83MB Kongsberg multibeam vendor format
1152_20110204_143837_melville.all.mb58.gz 31.77MB Kongsberg multibeam vendor format
1153_20110204_150831_melville.all.mb58.gz 31.86MB Kongsberg multibeam vendor format
1154_20110204_153819_melville.all.mb58.gz 32.40MB Kongsberg multibeam vendor format
1155_20110204_160843_melville.all.mb58.gz 31.90MB Kongsberg multibeam vendor format
1156_20110204_163839_melville.all.mb58.gz 31.72MB Kongsberg multibeam vendor format
1157_20110204_170834_melville.all.mb58.gz 32.07MB Kongsberg multibeam vendor format
1158_20110204_173840_melville.all.mb58.gz 31.75MB Kongsberg multibeam vendor format
1159_20110204_180833_melville.all.mb58.gz 31.79MB Kongsberg multibeam vendor format
1160_20110204_183828_melville.all.mb58.gz 31.83MB Kongsberg multibeam vendor format
1161_20110204_190821_melville.all.mb58.gz 32.49MB Kongsberg multibeam vendor format
1162_20110204_193853_melville.all.mb58.gz 31.77MB Kongsberg multibeam vendor format
1163_20110204_200845_melville.all.mb58.gz 31.67MB Kongsberg multibeam vendor format
1164_20110204_203828_melville.all.mb58.gz 32.45MB Kongsberg multibeam vendor format
1165_20110204_210854_melville.all.mb58.gz 31.80MB Kongsberg multibeam vendor format
1166_20110204_213847_melville.all.mb58.gz 31.83MB Kongsberg multibeam vendor format
1167_20110204_220840_melville.all.mb58.gz 31.87MB Kongsberg multibeam vendor format
1168_20110204_223832_melville.all.mb58.gz 32.16MB Kongsberg multibeam vendor format
1169_20110204_230844_melville.all.mb58.gz 31.71MB Kongsberg multibeam vendor format
1170_20110204_233835_melville.all.mb58.gz 32.08MB Kongsberg multibeam vendor format
1171_20110205_000847_melville.all.mb58.gz 31.92MB Kongsberg multibeam vendor format
1172_20110205_003850_melville.all.mb58.gz 31.52MB Kongsberg multibeam vendor format
1173_20110205_010829_melville.all.mb58.gz 32.11MB Kongsberg multibeam vendor format
1174_20110205_013840_melville.all.mb58.gz 31.68MB Kongsberg multibeam vendor format
1175_20110205_020831_melville.all.mb58.gz 31.74MB Kongsberg multibeam vendor format
1176_20110205_023823_melville.all.mb58.gz 32.41MB Kongsberg multibeam vendor format
1177_20110205_030853_melville.all.mb58.gz 31.72MB Kongsberg multibeam vendor format
1178_20110205_033846_melville.all.mb58.gz 31.70MB Kongsberg multibeam vendor format
1179_20110205_040838_melville.all.mb58.gz 31.68MB Kongsberg multibeam vendor format
1180_20110205_043829_melville.all.mb58.gz 32.22MB Kongsberg multibeam vendor format
1181_20110205_050851_melville.all.mb58.gz 31.62MB Kongsberg multibeam vendor format
1182_20110205_053838_melville.all.mb58.gz 31.75MB Kongsberg multibeam vendor format
1183_20110205_060830_melville.all.mb58.gz 31.88MB Kongsberg multibeam vendor format
1184_20110205_063820_melville.all.mb58.gz 32.43MB Kongsberg multibeam vendor format
1185_20110205_070847_melville.all.mb58.gz 31.94MB Kongsberg multibeam vendor format
1186_20110205_073843_melville.all.mb58.gz 32.17MB Kongsberg multibeam vendor format
1187_20110205_080846_melville.all.mb58.gz 31.83MB Kongsberg multibeam vendor format
1188_20110205_083827_melville.all.mb58.gz 32.17MB Kongsberg multibeam vendor format
1189_20110205_090842_melville.all.mb58.gz 31.89MB Kongsberg multibeam vendor format
1190_20110205_093839_melville.all.mb58.gz 31.98MB Kongsberg multibeam vendor format
1191_20110205_100840_melville.all.mb58.gz 31.64MB Kongsberg multibeam vendor format
1192_20110205_103823_melville.all.mb58.gz 32.27MB Kongsberg multibeam vendor format
1193_20110205_110838_melville.all.mb58.gz 32.11MB Kongsberg multibeam vendor format
1194_20110205_113848_melville.all.mb58.gz 31.69MB Kongsberg multibeam vendor format
1195_20110205_120828_melville.all.mb58.gz 32.43MB Kongsberg multibeam vendor format
1196_20110205_123854_melville.all.mb58.gz 32.03MB Kongsberg multibeam vendor format
1197_20110205_130855_melville.all.mb58.gz 31.67MB Kongsberg multibeam vendor format
1198_20110205_133840_melville.all.mb58.gz 31.32MB Kongsberg multibeam vendor format
1199_20110205_140821_melville.all.mb58.gz 32.16MB Kongsberg multibeam vendor format
1200_20110205_143849_melville.all.mb58.gz 31.14MB Kongsberg multibeam vendor format
1201_20110205_150825_melville.all.mb58.gz 32.08MB Kongsberg multibeam vendor format
1202_20110205_153846_melville.all.mb58.gz 31.22MB Kongsberg multibeam vendor format
1203_20110205_160829_melville.all.mb58.gz 31.90MB Kongsberg multibeam vendor format
1204_20110205_163838_melville.all.mb58.gz 31.55MB Kongsberg multibeam vendor format
1205_20110205_170827_melville.all.mb58.gz 32.33MB Kongsberg multibeam vendor format
1206_20110205_173848_melville.all.mb58.gz 31.30MB Kongsberg multibeam vendor format
1207_20110205_180820_melville.all.mb58.gz 32.30MB Kongsberg multibeam vendor format
1208_20110205_183824_melville.all.mb58.gz 32.29MB Kongsberg multibeam vendor format
1209_20110205_190851_melville.all.mb58.gz 31.40MB Kongsberg multibeam vendor format
1210_20110205_193833_melville.all.mb58.gz 31.75MB Kongsberg multibeam vendor format
1211_20110205_200842_melville.all.mb58.gz 31.90MB Kongsberg multibeam vendor format
1212_20110205_203851_melville.all.mb58.gz 31.37MB Kongsberg multibeam vendor format
1213_20110205_210836_melville.all.mb58.gz 32.06MB Kongsberg multibeam vendor format
1214_20110205_213851_melville.all.mb58.gz 31.30MB Kongsberg multibeam vendor format
1215_20110205_220820_melville.all.mb58.gz 32.15MB Kongsberg multibeam vendor format
1216_20110205_223838_melville.all.mb58.gz 32.39MB Kongsberg multibeam vendor format
1217_20110205_230841_melville.all.mb58.gz 31.84MB Kongsberg multibeam vendor format
1218_20110205_233840_melville.all.mb58.gz 31.80MB Kongsberg multibeam vendor format
1219_20110206_000838_melville.all.mb58.gz 32.19MB Kongsberg multibeam vendor format
1220_20110206_003849_melville.all.mb58.gz 31.79MB Kongsberg multibeam vendor format
1221_20110206_010847_melville.all.mb58.gz 31.53MB Kongsberg multibeam vendor format
1222_20110206_013829_melville.all.mb58.gz 31.85MB Kongsberg multibeam vendor format
1223_20110206_020828_melville.all.mb58.gz 32.27MB Kongsberg multibeam vendor format
1224_20110206_023844_melville.all.mb58.gz 32.07MB Kongsberg multibeam vendor format
1225_20110206_030852_melville.all.mb58.gz 31.68MB Kongsberg multibeam vendor format
1226_20110206_033837_melville.all.mb58.gz 31.75MB Kongsberg multibeam vendor format
1227_20110206_040818_melville.all.mb58.gz 32.22MB Kongsberg multibeam vendor format
1228_20110206_043824_melville.all.mb58.gz 32.29MB Kongsberg multibeam vendor format
1229_20110206_050851_melville.all.mb58.gz 31.60MB Kongsberg multibeam vendor format
1230_20110206_053832_melville.all.mb58.gz 32.31MB Kongsberg multibeam vendor format
1231_20110206_060848_melville.all.mb58.gz 31.70MB Kongsberg multibeam vendor format
1232_20110206_063844_melville.all.mb58.gz 31.89MB Kongsberg multibeam vendor format
1233_20110206_070850_melville.all.mb58.gz 31.60MB Kongsberg multibeam vendor format
1234_20110206_073835_melville.all.mb58.gz 32.22MB Kongsberg multibeam vendor format
1235_20110206_080833_melville.all.mb58.gz 32.29MB Kongsberg multibeam vendor format
1236_20110206_083835_melville.all.mb58.gz 32.45MB Kongsberg multibeam vendor format
1237_20110206_090835_melville.all.mb58.gz 32.62MB Kongsberg multibeam vendor format
1238_20110206_093847_melville.all.mb58.gz 32.35MB Kongsberg multibeam vendor format
1239_20110206_100849_melville.all.mb58.gz 32.37MB Kongsberg multibeam vendor format
1240_20110206_103848_melville.all.mb58.gz 32.33MB Kongsberg multibeam vendor format
1241_20110206_110846_melville.all.mb58.gz 31.98MB Kongsberg multibeam vendor format
1242_20110206_113833_melville.all.mb58.gz 32.53MB Kongsberg multibeam vendor format
1243_20110206_120849_melville.all.mb58.gz 31.61MB Kongsberg multibeam vendor format
1244_20110206_123817_melville.all.mb58.gz 32.58MB Kongsberg multibeam vendor format
1245_20110206_130848_melville.all.mb58.gz 31.96MB Kongsberg multibeam vendor format
1246_20110206_133839_melville.all.mb58.gz 32.33MB Kongsberg multibeam vendor format
1247_20110206_140844_melville.all.mb58.gz 31.48MB Kongsberg multibeam vendor format
1248_20110206_143828_melville.all.mb58.gz 32.51MB Kongsberg multibeam vendor format
1249_20110206_150842_melville.all.mb58.gz 31.90MB Kongsberg multibeam vendor format
1250_20110206_153838_melville.all.mb58.gz 32.23MB Kongsberg multibeam vendor format
1251_20110206_160838_melville.all.mb58.gz 32.09MB Kongsberg multibeam vendor format
1252_20110206_163829_melville.all.mb58.gz 31.67MB Kongsberg multibeam vendor format
1253_20110206_170817_melville.all.mb58.gz 32.18MB Kongsberg multibeam vendor format
1254_20110206_173818_melville.all.mb58.gz 32.62MB Kongsberg multibeam vendor format
1255_20110206_180843_melville.all.mb58.gz 31.62MB Kongsberg multibeam vendor format
1256_20110206_183822_melville.all.mb58.gz 32.16MB Kongsberg multibeam vendor format
1257_20110206_190837_melville.all.mb58.gz 31.70MB Kongsberg multibeam vendor format
1258_20110206_193837_melville.all.mb58.gz 32.14MB Kongsberg multibeam vendor format
1259_20110206_200826_melville.all.mb58.gz 32.69MB Kongsberg multibeam vendor format
1260_20110206_203845_melville.all.mb58.gz 31.67MB Kongsberg multibeam vendor format
1261_20110206_210827_melville.all.mb58.gz 31.68MB Kongsberg multibeam vendor format
1262_20110206_213823_melville.all.mb58.gz 31.73MB Kongsberg multibeam vendor format
1263_20110206_220841_melville.all.mb58.gz 32.19MB Kongsberg multibeam vendor format
1264_20110206_223825_melville.all.mb58.gz 33.51MB Kongsberg multibeam vendor format
1265_20110206_230853_melville.all.mb58.gz 31.56MB Kongsberg multibeam vendor format
1266_20110206_233845_melville.all.mb58.gz 32.05MB Kongsberg multibeam vendor format
1267_20110207_000834_melville.all.mb58.gz 32.88MB Kongsberg multibeam vendor format
1268_20110207_003832_melville.all.mb58.gz 32.79MB Kongsberg multibeam vendor format
1269_20110207_010829_melville.all.mb58.gz 33.26MB Kongsberg multibeam vendor format
1270_20110207_013847_melville.all.mb58.gz 32.88MB Kongsberg multibeam vendor format
1271_20110207_020837_melville.all.mb58.gz 33.33MB Kongsberg multibeam vendor format
1272_20110207_023830_melville.all.mb58.gz 33.32MB Kongsberg multibeam vendor format
1273_20110207_030822_melville.all.mb58.gz 33.57MB Kongsberg multibeam vendor format
1274_20110207_033832_melville.all.mb58.gz 32.94MB Kongsberg multibeam vendor format
1275_20110207_040818_melville.all.mb58.gz 33.35MB Kongsberg multibeam vendor format
1276_20110207_043821_melville.all.mb58.gz 33.68MB Kongsberg multibeam vendor format
1277_20110207_050844_melville.all.mb58.gz 32.68MB Kongsberg multibeam vendor format
1278_20110207_053831_melville.all.mb58.gz 32.85MB Kongsberg multibeam vendor format
1279_20110207_060819_melville.all.mb58.gz 33.50MB Kongsberg multibeam vendor format
1280_20110207_063843_melville.all.mb58.gz 32.79MB Kongsberg multibeam vendor format
1281_20110207_070828_melville.all.mb58.gz 33.02MB Kongsberg multibeam vendor format
1282_20110207_073832_melville.all.mb58.gz 33.09MB Kongsberg multibeam vendor format
1283_20110207_080844_melville.all.mb58.gz 32.69MB Kongsberg multibeam vendor format
1284_20110207_083828_melville.all.mb58.gz 32.94MB Kongsberg multibeam vendor format
1285_20110207_090839_melville.all.mb58.gz 32.52MB Kongsberg multibeam vendor format
1286_20110207_093829_melville.all.mb58.gz 32.40MB Kongsberg multibeam vendor format
1287_20110207_100821_melville.all.mb58.gz 32.45MB Kongsberg multibeam vendor format
1288_20110207_103822_melville.all.mb58.gz 32.59MB Kongsberg multibeam vendor format
1289_20110207_110822_melville.all.mb58.gz 32.97MB Kongsberg multibeam vendor format
1290_20110207_113821_melville.all.mb58.gz 33.09MB Kongsberg multibeam vendor format
1291_20110207_120821_melville.all.mb58.gz 33.34MB Kongsberg multibeam vendor format
1292_20110207_123831_melville.all.mb58.gz 33.01MB Kongsberg multibeam vendor format
1293_20110207_130832_melville.all.mb58.gz 33.24MB Kongsberg multibeam vendor format
1294_20110207_133838_melville.all.mb58.gz 32.89MB Kongsberg multibeam vendor format
1295_20110207_140817_melville.all.mb58.gz 33.30MB Kongsberg multibeam vendor format
1296_20110207_143830_melville.all.mb58.gz 32.01MB Kongsberg multibeam vendor format
1297_20110207_150827_melville.all.mb58.gz 33.67MB Kongsberg multibeam vendor format
1298_20110207_153831_melville.all.mb58.gz 32.88MB Kongsberg multibeam vendor format
1299_20110207_160822_melville.all.mb58.gz 33.69MB Kongsberg multibeam vendor format
1300_20110207_163821_melville.all.mb58.gz 33.05MB Kongsberg multibeam vendor format
1301_20110207_170828_melville.all.mb58.gz 33.23MB Kongsberg multibeam vendor format
1302_20110207_173828_melville.all.mb58.gz 32.29MB Kongsberg multibeam vendor format
1303_20110207_180821_melville.all.mb58.gz 33.76MB Kongsberg multibeam vendor format
1304_20110207_183830_melville.all.mb58.gz 32.50MB Kongsberg multibeam vendor format
1305_20110207_190817_melville.all.mb58.gz 33.07MB Kongsberg multibeam vendor format
1306_20110207_193843_melville.all.mb58.gz 32.71MB Kongsberg multibeam vendor format
1307_20110207_200843_melville.all.mb58.gz 32.75MB Kongsberg multibeam vendor format
1308_20110207_203834_melville.all.mb58.gz 33.89MB Kongsberg multibeam vendor format
1309_20110207_210839_melville.all.mb58.gz 33.62MB Kongsberg multibeam vendor format
1310_20110207_213831_melville.all.mb58.gz 33.46MB Kongsberg multibeam vendor format
1311_20110207_220835_melville.all.mb58.gz 33.31MB Kongsberg multibeam vendor format
1312_20110207_223823_melville.all.mb58.gz 37.00MB Kongsberg multibeam vendor format
1313_20110207_230823_melville.all.mb58.gz 32.08MB Kongsberg multibeam vendor format
1314_20110207_233828_melville.all.mb58.gz 32.13MB Kongsberg multibeam vendor format
1315_20110208_000829_melville.all.mb58.gz 31.91MB Kongsberg multibeam vendor format
1316_20110208_003829_melville.all.mb58.gz 32.09MB Kongsberg multibeam vendor format
1317_20110208_010819_melville.all.mb58.gz 33.36MB Kongsberg multibeam vendor format
1318_20110208_013843_melville.all.mb58.gz 32.20MB Kongsberg multibeam vendor format
1319_20110208_020827_melville.all.mb58.gz 33.42MB Kongsberg multibeam vendor format
1320_20110208_023849_melville.all.mb58.gz 31.82MB Kongsberg multibeam vendor format
1321_20110208_030838_melville.all.mb58.gz 33.46MB Kongsberg multibeam vendor format
1322_20110208_033842_melville.all.mb58.gz 31.92MB Kongsberg multibeam vendor format
1323_20110208_040824_melville.all.mb58.gz 32.88MB Kongsberg multibeam vendor format
1324_20110208_043838_melville.all.mb58.gz 32.35MB Kongsberg multibeam vendor format
1325_20110208_050829_melville.all.mb58.gz 32.67MB Kongsberg multibeam vendor format
1326_20110208_053845_melville.all.mb58.gz 31.96MB Kongsberg multibeam vendor format
1327_20110208_060816_melville.all.mb58.gz 32.53MB Kongsberg multibeam vendor format
1328_20110208_063823_melville.all.mb58.gz 32.80MB Kongsberg multibeam vendor format
1329_20110208_070849_melville.all.mb58.gz 31.74MB Kongsberg multibeam vendor format
1330_20110208_073821_melville.all.mb58.gz 33.15MB Kongsberg multibeam vendor format
1331_20110208_080844_melville.all.mb58.gz 32.21MB Kongsberg multibeam vendor format
1332_20110208_083829_melville.all.mb58.gz 32.72MB Kongsberg multibeam vendor format
1333_20110208_090842_melville.all.mb58.gz 32.67MB Kongsberg multibeam vendor format
1334_20110208_093827_melville.all.mb58.gz 32.68MB Kongsberg multibeam vendor format
1335_20110208_100829_melville.all.mb58.gz 32.49MB Kongsberg multibeam vendor format
1336_20110208_103838_melville.all.mb58.gz 32.29MB Kongsberg multibeam vendor format
1337_20110208_110838_melville.all.mb58.gz 32.24MB Kongsberg multibeam vendor format
1338_20110208_113816_melville.all.mb58.gz 32.55MB Kongsberg multibeam vendor format
1339_20110208_120836_melville.all.mb58.gz 32.72MB Kongsberg multibeam vendor format
1340_20110208_123829_melville.all.mb58.gz 32.51MB Kongsberg multibeam vendor format
1341_20110208_130823_melville.all.mb58.gz 32.41MB Kongsberg multibeam vendor format
1342_20110208_133820_melville.all.mb58.gz 33.28MB Kongsberg multibeam vendor format
1343_20110208_140840_melville.all.mb58.gz 32.40MB Kongsberg multibeam vendor format
1344_20110208_143830_melville.all.mb58.gz 32.46MB Kongsberg multibeam vendor format
1345_20110208_150815_melville.all.mb58.gz 33.12MB Kongsberg multibeam vendor format
1346_20110208_153821_melville.all.mb58.gz 32.74MB Kongsberg multibeam vendor format
1347_20110208_160822_melville.all.mb58.gz 33.10MB Kongsberg multibeam vendor format
1348_20110208_163847_melville.all.mb58.gz 32.28MB Kongsberg multibeam vendor format
1349_20110208_170820_melville.all.mb58.gz 32.81MB Kongsberg multibeam vendor format
1350_20110208_173834_melville.all.mb58.gz 32.64MB Kongsberg multibeam vendor format
1351_20110208_180843_melville.all.mb58.gz 32.19MB Kongsberg multibeam vendor format
1352_20110208_183826_melville.all.mb58.gz 32.46MB Kongsberg multibeam vendor format
1353_20110208_190838_melville.all.mb58.gz 32.72MB Kongsberg multibeam vendor format
1354_20110208_193836_melville.all.mb58.gz 32.16MB Kongsberg multibeam vendor format
1355_20110208_200820_melville.all.mb58.gz 32.11MB Kongsberg multibeam vendor format
1356_20110208_203818_melville.all.mb58.gz 32.49MB Kongsberg multibeam vendor format
1357_20110208_210829_melville.all.mb58.gz 32.65MB Kongsberg multibeam vendor format
1358_20110208_213834_melville.all.mb58.gz 32.33MB Kongsberg multibeam vendor format
1359_20110208_220818_melville.all.mb58.gz 32.36MB Kongsberg multibeam vendor format
1360_20110208_223821_melville.all.mb58.gz 32.63MB Kongsberg multibeam vendor format
1361_20110208_230844_melville.all.mb58.gz 32.25MB Kongsberg multibeam vendor format
1362_20110208_233824_melville.all.mb58.gz 32.48MB Kongsberg multibeam vendor format
1363_20110209_000827_melville.all.mb58.gz 32.36MB Kongsberg multibeam vendor format
1364_20110209_003836_melville.all.mb58.gz 31.88MB Kongsberg multibeam vendor format
1365_20110209_010828_melville.all.mb58.gz 32.47MB Kongsberg multibeam vendor format
1366_20110209_013824_melville.all.mb58.gz 32.64MB Kongsberg multibeam vendor format
1367_20110209_020831_melville.all.mb58.gz 32.51MB Kongsberg multibeam vendor format
1368_20110209_023833_melville.all.mb58.gz 32.68MB Kongsberg multibeam vendor format
1369_20110209_030835_melville.all.mb58.gz 32.69MB Kongsberg multibeam vendor format
1370_20110209_033844_melville.all.mb58.gz 32.08MB Kongsberg multibeam vendor format
1371_20110209_040818_melville.all.mb58.gz 32.73MB Kongsberg multibeam vendor format
1372_20110209_043835_melville.all.mb58.gz 32.53MB Kongsberg multibeam vendor format
1373_20110209_050833_melville.all.mb58.gz 32.24MB Kongsberg multibeam vendor format
1374_20110209_053816_melville.all.mb58.gz 32.51MB Kongsberg multibeam vendor format
1375_20110209_060819_melville.all.mb58.gz 32.60MB Kongsberg multibeam vendor format
1376_20110209_063827_melville.all.mb58.gz 32.33MB Kongsberg multibeam vendor format
1377_20110209_070818_melville.all.mb58.gz 32.77MB Kongsberg multibeam vendor format
1378_20110209_073830_melville.all.mb58.gz 32.89MB Kongsberg multibeam vendor format
1379_20110209_080844_melville.all.mb58.gz 32.47MB Kongsberg multibeam vendor format
1380_20110209_083842_melville.all.mb58.gz 32.22MB Kongsberg multibeam vendor format
1381_20110209_090829_melville.all.mb58.gz 32.24MB Kongsberg multibeam vendor format
1382_20110209_093816_melville.all.mb58.gz 32.28MB Kongsberg multibeam vendor format
1383_20110209_100819_melville.all.mb58.gz 32.63MB Kongsberg multibeam vendor format
1384_20110209_103838_melville.all.mb58.gz 32.66MB Kongsberg multibeam vendor format
1385_20110209_110842_melville.all.mb58.gz 31.77MB Kongsberg multibeam vendor format
1386_20110209_113817_melville.all.mb58.gz 32.28MB Kongsberg multibeam vendor format
1387_20110209_120827_melville.all.mb58.gz 32.48MB Kongsberg multibeam vendor format
1388_20110209_123836_melville.all.mb58.gz 32.22MB Kongsberg multibeam vendor format
1389_20110209_130824_melville.all.mb58.gz 32.15MB Kongsberg multibeam vendor format
1390_20110209_133822_melville.all.mb58.gz 32.63MB Kongsberg multibeam vendor format
1391_20110209_140841_melville.all.mb58.gz 32.06MB Kongsberg multibeam vendor format
1392_20110209_143817_melville.all.mb58.gz 32.82MB Kongsberg multibeam vendor format
1393_20110209_150846_melville.all.mb58.gz 32.07MB Kongsberg multibeam vendor format
1394_20110209_153821_melville.all.mb58.gz 32.87MB Kongsberg multibeam vendor format
1395_20110209_160820_melville.all.mb58.gz 32.72MB Kongsberg multibeam vendor format
1396_20110209_163839_melville.all.mb58.gz 31.73MB Kongsberg multibeam vendor format
1397_20110209_170821_melville.all.mb58.gz 32.56MB Kongsberg multibeam vendor format
1398_20110209_173843_melville.all.mb58.gz 31.83MB Kongsberg multibeam vendor format
1399_20110209_180818_melville.all.mb58.gz 32.53MB Kongsberg multibeam vendor format
1400_20110209_183835_melville.all.mb58.gz 32.08MB Kongsberg multibeam vendor format
1401_20110209_190823_melville.all.mb58.gz 32.08MB Kongsberg multibeam vendor format
1402_20110209_193824_melville.all.mb58.gz 32.42MB Kongsberg multibeam vendor format
1403_20110209_200817_melville.all.mb58.gz 32.60MB Kongsberg multibeam vendor format
1404_20110209_203829_melville.all.mb58.gz 31.90MB Kongsberg multibeam vendor format
1405_20110209_210814_melville.all.mb58.gz 32.77MB Kongsberg multibeam vendor format
1406_20110209_213828_melville.all.mb58.gz 31.98MB Kongsberg multibeam vendor format
1407_20110209_220816_melville.all.mb58.gz 32.91MB Kongsberg multibeam vendor format
1408_20110209_223844_melville.all.mb58.gz 31.97MB Kongsberg multibeam vendor format
1409_20110209_230828_melville.all.mb58.gz 32.43MB Kongsberg multibeam vendor format
1410_20110209_233847_melville.all.mb58.gz 31.89MB Kongsberg multibeam vendor format
1411_20110210_000834_melville.all.mb58.gz 31.99MB Kongsberg multibeam vendor format
1412_20110210_003838_melville.all.mb58.gz 31.58MB Kongsberg multibeam vendor format
1413_20110210_010815_melville.all.mb58.gz 32.56MB Kongsberg multibeam vendor format
1414_20110210_013835_melville.all.mb58.gz 31.88MB Kongsberg multibeam vendor format
1415_20110210_020829_melville.all.mb58.gz 32.29MB Kongsberg multibeam vendor format
1416_20110210_023840_melville.all.mb58.gz 31.89MB Kongsberg multibeam vendor format
1417_20110210_030831_melville.all.mb58.gz 32.01MB Kongsberg multibeam vendor format
1418_20110210_033819_melville.all.mb58.gz 32.54MB Kongsberg multibeam vendor format
1419_20110210_040846_melville.all.mb58.gz 31.91MB Kongsberg multibeam vendor format
1420_20110210_043833_melville.all.mb58.gz 32.17MB Kongsberg multibeam vendor format
1421_20110210_050826_melville.all.mb58.gz 32.43MB Kongsberg multibeam vendor format
1422_20110210_053840_melville.all.mb58.gz 32.25MB Kongsberg multibeam vendor format
1423_20110210_060823_melville.all.mb58.gz 33.06MB Kongsberg multibeam vendor format
1424_20110210_063841_melville.all.mb58.gz 32.38MB Kongsberg multibeam vendor format
1425_20110210_070831_melville.all.mb58.gz 32.59MB Kongsberg multibeam vendor format
1426_20110210_073838_melville.all.mb58.gz 32.61MB Kongsberg multibeam vendor format
1427_20110210_080824_melville.all.mb58.gz 32.65MB Kongsberg multibeam vendor format
1428_20110210_083816_melville.all.mb58.gz 32.74MB Kongsberg multibeam vendor format
1429_20110210_090825_melville.all.mb58.gz 32.25MB Kongsberg multibeam vendor format
1430_20110210_093818_melville.all.mb58.gz 32.42MB Kongsberg multibeam vendor format
1431_20110210_100829_melville.all.mb58.gz 32.11MB Kongsberg multibeam vendor format
1432_20110210_103819_melville.all.mb58.gz 32.71MB Kongsberg multibeam vendor format
1433_20110210_110845_melville.all.mb58.gz 31.87MB Kongsberg multibeam vendor format
1434_20110210_113830_melville.all.mb58.gz 32.00MB Kongsberg multibeam vendor format
1435_20110210_120825_melville.all.mb58.gz 32.61MB Kongsberg multibeam vendor format
1436_20110210_123826_melville.all.mb58.gz 32.32MB Kongsberg multibeam vendor format
1437_20110210_130818_melville.all.mb58.gz 32.46MB Kongsberg multibeam vendor format
1438_20110210_133813_melville.all.mb58.gz 32.77MB Kongsberg multibeam vendor format
1439_20110210_140836_melville.all.mb58.gz 32.21MB Kongsberg multibeam vendor format
1440_20110210_143835_melville.all.mb58.gz 32.15MB Kongsberg multibeam vendor format
1441_20110210_150839_melville.all.mb58.gz 31.87MB Kongsberg multibeam vendor format
1442_20110210_153826_melville.all.mb58.gz 32.15MB Kongsberg multibeam vendor format
1443_20110210_160822_melville.all.mb58.gz 32.52MB Kongsberg multibeam vendor format
1444_20110210_163834_melville.all.mb58.gz 32.19MB Kongsberg multibeam vendor format
1445_20110210_170822_melville.all.mb58.gz 32.59MB Kongsberg multibeam vendor format
1446_20110210_173837_melville.all.mb58.gz 31.95MB Kongsberg multibeam vendor format
1447_20110210_180815_melville.all.mb58.gz 32.68MB Kongsberg multibeam vendor format
1448_20110210_183835_melville.all.mb58.gz 32.16MB Kongsberg multibeam vendor format
1449_20110210_190831_melville.all.mb58.gz 32.56MB Kongsberg multibeam vendor format
1450_20110210_193844_melville.all.mb58.gz 31.73MB Kongsberg multibeam vendor format
1451_20110210_200814_melville.all.mb58.gz 31.83MB Kongsberg multibeam vendor format
1452_20110210_203819_melville.all.mb58.gz 31.90MB Kongsberg multibeam vendor format
1453_20110210_210825_melville.all.mb58.gz 32.64MB Kongsberg multibeam vendor format
1454_20110210_213814_melville.all.mb58.gz 32.12MB Kongsberg multibeam vendor format
1455_20110210_220826_melville.all.mb58.gz 32.29MB Kongsberg multibeam vendor format
1456_20110210_223822_melville.all.mb58.gz 32.22MB Kongsberg multibeam vendor format
1457_20110210_230823_melville.all.mb58.gz 32.32MB Kongsberg multibeam vendor format
1458_20110210_233827_melville.all.mb58.gz 32.36MB Kongsberg multibeam vendor format
1459_20110211_000843_melville.all.mb58.gz 32.14MB Kongsberg multibeam vendor format
1460_20110211_003836_melville.all.mb58.gz 32.38MB Kongsberg multibeam vendor format
1461_20110211_010845_melville.all.mb58.gz 31.61MB Kongsberg multibeam vendor format
1462_20110211_013819_melville.all.mb58.gz 32.32MB Kongsberg multibeam vendor format
1463_20110211_020824_melville.all.mb58.gz 32.45MB Kongsberg multibeam vendor format
1464_20110211_023831_melville.all.mb58.gz 32.53MB Kongsberg multibeam vendor format
1465_20110211_030837_melville.all.mb58.gz 32.03MB Kongsberg multibeam vendor format
1466_20110211_033823_melville.all.mb58.gz 32.29MB Kongsberg multibeam vendor format
1467_20110211_040822_melville.all.mb58.gz 32.39MB Kongsberg multibeam vendor format
1468_20110211_043835_melville.all.mb58.gz 32.04MB Kongsberg multibeam vendor format
1469_20110211_050828_melville.all.mb58.gz 32.34MB Kongsberg multibeam vendor format
1470_20110211_053843_melville.all.mb58.gz 31.91MB Kongsberg multibeam vendor format
1471_20110211_060843_melville.all.mb58.gz 31.71MB Kongsberg multibeam vendor format
1472_20110211_063825_melville.all.mb58.gz 32.33MB Kongsberg multibeam vendor format
1473_20110211_070844_melville.all.mb58.gz 31.47MB Kongsberg multibeam vendor format
1474_20110211_073828_melville.all.mb58.gz 32.33MB Kongsberg multibeam vendor format
1475_20110211_080830_melville.all.mb58.gz 32.27MB Kongsberg multibeam vendor format
1476_20110211_083841_melville.all.mb58.gz 31.76MB Kongsberg multibeam vendor format
1477_20110211_090839_melville.all.mb58.gz 31.62MB Kongsberg multibeam vendor format
1478_20110211_093834_melville.all.mb58.gz 32.05MB Kongsberg multibeam vendor format
1479_20110211_100842_melville.all.mb58.gz 31.46MB Kongsberg multibeam vendor format
1480_20110211_103820_melville.all.mb58.gz 31.94MB Kongsberg multibeam vendor format
1481_20110211_110825_melville.all.mb58.gz 31.79MB Kongsberg multibeam vendor format
1482_20110211_113842_melville.all.mb58.gz 30.78MB Kongsberg multibeam vendor format
1483_20110211_120819_melville.all.mb58.gz 31.69MB Kongsberg multibeam vendor format
1484_20110211_123825_melville.all.mb58.gz 31.42MB Kongsberg multibeam vendor format
1485_20110211_130840_melville.all.mb58.gz 31.70MB Kongsberg multibeam vendor format
1486_20110211_133840_melville.all.mb58.gz 31.54MB Kongsberg multibeam vendor format
1487_20110211_140821_melville.all.mb58.gz 31.62MB Kongsberg multibeam vendor format
1488_20110211_143816_melville.all.mb58.gz 32.02MB Kongsberg multibeam vendor format
1489_20110211_150827_melville.all.mb58.gz 32.08MB Kongsberg multibeam vendor format
1490_20110211_153839_melville.all.mb58.gz 31.44MB Kongsberg multibeam vendor format
1491_20110211_160818_melville.all.mb58.gz 32.16MB Kongsberg multibeam vendor format
1492_20110211_163829_melville.all.mb58.gz 31.66MB Kongsberg multibeam vendor format
1493_20110211_170813_melville.all.mb58.gz 32.25MB Kongsberg multibeam vendor format
1494_20110211_173835_melville.all.mb58.gz 31.59MB Kongsberg multibeam vendor format
1495_20110211_180818_melville.all.mb58.gz 32.28MB Kongsberg multibeam vendor format
1496_20110211_183821_melville.all.mb58.gz 31.77MB Kongsberg multibeam vendor format
1497_20110211_190814_melville.all.mb58.gz 32.18MB Kongsberg multibeam vendor format
1498_20110211_193822_melville.all.mb58.gz 31.98MB Kongsberg multibeam vendor format
1499_20110211_200840_melville.all.mb58.gz 31.61MB Kongsberg multibeam vendor format
1500_20110211_203825_melville.all.mb58.gz 32.23MB Kongsberg multibeam vendor format
1501_20110211_210848_melville.all.mb58.gz 31.54MB Kongsberg multibeam vendor format
1502_20110211_213831_melville.all.mb58.gz 25.79MB Kongsberg multibeam vendor format
1502_20110211_233814_melville.all.mb58.gz 32.68MB Kongsberg multibeam vendor format
1503_20110212_000845_melville.all.mb58.gz 31.89MB Kongsberg multibeam vendor format
1504_20110212_003834_melville.all.mb58.gz 31.74MB Kongsberg multibeam vendor format
1505_20110212_010824_melville.all.mb58.gz 32.47MB Kongsberg multibeam vendor format
1506_20110212_013847_melville.all.mb58.gz 31.80MB Kongsberg multibeam vendor format
1507_20110212_020829_melville.all.mb58.gz 32.35MB Kongsberg multibeam vendor format
1508_20110212_023848_melville.all.mb58.gz 31.69MB Kongsberg multibeam vendor format
1509_20110212_030830_melville.all.mb58.gz 32.35MB Kongsberg multibeam vendor format
1510_20110212_033842_melville.all.mb58.gz 31.59MB Kongsberg multibeam vendor format
1511_20110212_040818_melville.all.mb58.gz 32.42MB Kongsberg multibeam vendor format
1512_20110212_043836_melville.all.mb58.gz 31.82MB Kongsberg multibeam vendor format
1513_20110212_050817_melville.all.mb58.gz 32.44MB Kongsberg multibeam vendor format
1514_20110212_053835_melville.all.mb58.gz 32.37MB Kongsberg multibeam vendor format
1515_20110212_060852_melville.all.mb58.gz 31.68MB Kongsberg multibeam vendor format
1516_20110212_063831_melville.all.mb58.gz 32.24MB Kongsberg multibeam vendor format
1517_20110212_070847_melville.all.mb58.gz 31.57MB Kongsberg multibeam vendor format
1518_20110212_073825_melville.all.mb58.gz 32.28MB Kongsberg multibeam vendor format
1519_20110212_080839_melville.all.mb58.gz 32.05MB Kongsberg multibeam vendor format
1520_20110212_083829_melville.all.mb58.gz 32.18MB Kongsberg multibeam vendor format
1521_20110212_090837_melville.all.mb58.gz 31.87MB Kongsberg multibeam vendor format
1522_20110212_093823_melville.all.mb58.gz 32.16MB Kongsberg multibeam vendor format
1523_20110212_100837_melville.all.mb58.gz 31.57MB Kongsberg multibeam vendor format
1524_20110212_103818_melville.all.mb58.gz 32.54MB Kongsberg multibeam vendor format
1525_20110212_110837_melville.all.mb58.gz 31.64MB Kongsberg multibeam vendor format
1526_20110212_113819_melville.all.mb58.gz 32.19MB Kongsberg multibeam vendor format
1527_20110212_120838_melville.all.mb58.gz 31.79MB Kongsberg multibeam vendor format
1528_20110212_123819_melville.all.mb58.gz 32.78MB Kongsberg multibeam vendor format
1529_20110212_130851_melville.all.mb58.gz 31.71MB Kongsberg multibeam vendor format
1530_20110212_133826_melville.all.mb58.gz 32.23MB Kongsberg multibeam vendor format
1531_20110212_140837_melville.all.mb58.gz 32.17MB Kongsberg multibeam vendor format
1532_20110212_143838_melville.all.mb58.gz 32.11MB Kongsberg multibeam vendor format
1533_20110212_150841_melville.all.mb58.gz 31.00MB Kongsberg multibeam vendor format
1534_20110212_153816_melville.all.mb58.gz 32.38MB Kongsberg multibeam vendor format
1535_20110212_160824_melville.all.mb58.gz 31.80MB Kongsberg multibeam vendor format
1536_20110212_163830_melville.all.mb58.gz 32.13MB Kongsberg multibeam vendor format
1537_20110212_170835_melville.all.mb58.gz 31.73MB Kongsberg multibeam vendor format
1538_20110212_173840_melville.all.mb58.gz 31.93MB Kongsberg multibeam vendor format
1539_20110212_180846_melville.all.mb58.gz 31.27MB Kongsberg multibeam vendor format
1540_20110212_183815_melville.all.mb58.gz 31.23MB Kongsberg multibeam vendor format
1541_20110212_190834_melville.all.mb58.gz 31.07MB Kongsberg multibeam vendor format
1542_20110212_193840_melville.all.mb58.gz 31.45MB Kongsberg multibeam vendor format
1543_20110212_200849_melville.all.mb58.gz 31.05MB Kongsberg multibeam vendor format
1544_20110212_203822_melville.all.mb58.gz 31.96MB Kongsberg multibeam vendor format
1545_20110212_210831_melville.all.mb58.gz 31.94MB Kongsberg multibeam vendor format
1546_20110212_213840_melville.all.mb58.gz 32.09MB Kongsberg multibeam vendor format
1547_20110212_220848_melville.all.mb58.gz 30.87MB Kongsberg multibeam vendor format
1548_20110212_223817_melville.all.mb58.gz 32.34MB Kongsberg multibeam vendor format
1549_20110212_230841_melville.all.mb58.gz 31.04MB Kongsberg multibeam vendor format
1550_20110212_233829_melville.all.mb58.gz 30.71MB Kongsberg multibeam vendor format
1551_20110213_000822_melville.all.mb58.gz 31.50MB Kongsberg multibeam vendor format
1552_20110213_003830_melville.all.mb58.gz 31.96MB Kongsberg multibeam vendor format
1553_20110213_010844_melville.all.mb58.gz 31.23MB Kongsberg multibeam vendor format
1554_20110213_013830_melville.all.mb58.gz 31.18MB Kongsberg multibeam vendor format
1555_20110213_020826_melville.all.mb58.gz 30.65MB Kongsberg multibeam vendor format
1556_20110213_023834_melville.all.mb58.gz 31.65MB Kongsberg multibeam vendor format
1557_20110213_030847_melville.all.mb58.gz 30.67MB Kongsberg multibeam vendor format
1558_20110213_033832_melville.all.mb58.gz 31.50MB Kongsberg multibeam vendor format
1559_20110213_040815_melville.all.mb58.gz 32.10MB Kongsberg multibeam vendor format
1560_20110213_043828_melville.all.mb58.gz 31.98MB Kongsberg multibeam vendor format
1561_20110213_050844_melville.all.mb58.gz 31.33MB Kongsberg multibeam vendor format
1562_20110213_053825_melville.all.mb58.gz 31.84MB Kongsberg multibeam vendor format
1563_20110213_060826_melville.all.mb58.gz 31.68MB Kongsberg multibeam vendor format
1564_20110213_063838_melville.all.mb58.gz 31.56MB Kongsberg multibeam vendor format
1565_20110213_070820_melville.all.mb58.gz 32.33MB Kongsberg multibeam vendor format
1566_20110213_073850_melville.all.mb58.gz 31.38MB Kongsberg multibeam vendor format
1567_20110213_080821_melville.all.mb58.gz 31.87MB Kongsberg multibeam vendor format
1568_20110213_083830_melville.all.mb58.gz 32.03MB Kongsberg multibeam vendor format
1569_20110213_090826_melville.all.mb58.gz 32.06MB Kongsberg multibeam vendor format
1570_20110213_093835_melville.all.mb58.gz 31.89MB Kongsberg multibeam vendor format
1571_20110213_100839_melville.all.mb58.gz 32.01MB Kongsberg multibeam vendor format
1572_20110213_103845_melville.all.mb58.gz 31.66MB Kongsberg multibeam vendor format
1573_20110213_110815_melville.all.mb58.gz 32.07MB Kongsberg multibeam vendor format
1574_20110213_113815_melville.all.mb58.gz 32.41MB Kongsberg multibeam vendor format
1575_20110213_120832_melville.all.mb58.gz 32.16MB Kongsberg multibeam vendor format
1576_20110213_123839_melville.all.mb58.gz 32.16MB Kongsberg multibeam vendor format
1577_20110213_130847_melville.all.mb58.gz 31.65MB Kongsberg multibeam vendor format
1578_20110213_133815_melville.all.mb58.gz 31.94MB Kongsberg multibeam vendor format
1579_20110213_140826_melville.all.mb58.gz 32.17MB Kongsberg multibeam vendor format
1580_20110213_143832_melville.all.mb58.gz 32.17MB Kongsberg multibeam vendor format
1581_20110213_150839_melville.all.mb58.gz 32.18MB Kongsberg multibeam vendor format
1582_20110213_153844_melville.all.mb58.gz 32.32MB Kongsberg multibeam vendor format
1583_20110213_160850_melville.all.mb58.gz 31.64MB Kongsberg multibeam vendor format
1584_20110213_163817_melville.all.mb58.gz 32.30MB Kongsberg multibeam vendor format
1585_20110213_170823_melville.all.mb58.gz 32.26MB Kongsberg multibeam vendor format
1586_20110213_173827_melville.all.mb58.gz 32.36MB Kongsberg multibeam vendor format
1587_20110213_180835_melville.all.mb58.gz 31.82MB Kongsberg multibeam vendor format
1588_20110213_183820_melville.all.mb58.gz 32.20MB Kongsberg multibeam vendor format
1589_20110213_190824_melville.all.mb58.gz 32.27MB Kongsberg multibeam vendor format
1590_20110213_193828_melville.all.mb58.gz 32.18MB Kongsberg multibeam vendor format
1591_20110213_200831_melville.all.mb58.gz 32.25MB Kongsberg multibeam vendor format
1592_20110213_203835_melville.all.mb58.gz 32.24MB Kongsberg multibeam vendor format
1593_20110213_210838_melville.all.mb58.gz 32.03MB Kongsberg multibeam vendor format
1594_20110213_213829_melville.all.mb58.gz 32.22MB Kongsberg multibeam vendor format
1595_20110213_220832_melville.all.mb58.gz 32.24MB Kongsberg multibeam vendor format
1596_20110213_223843_melville.all.mb58.gz 31.96MB Kongsberg multibeam vendor format
1597_20110213_230835_melville.all.mb58.gz 32.01MB Kongsberg multibeam vendor format
1598_20110213_233826_melville.all.mb58.gz 32.08MB Kongsberg multibeam vendor format
1599_20110214_000820_melville.all.mb58.gz 32.09MB Kongsberg multibeam vendor format
1600_20110214_003820_melville.all.mb58.gz 32.62MB Kongsberg multibeam vendor format
1601_20110214_010846_melville.all.mb58.gz 32.08MB Kongsberg multibeam vendor format
1602_20110214_013842_melville.all.mb58.gz 31.92MB Kongsberg multibeam vendor format
1603_20110214_020827_melville.all.mb58.gz 32.39MB Kongsberg multibeam vendor format
1604_20110214_023838_melville.all.mb58.gz 31.98MB Kongsberg multibeam vendor format
1605_20110214_030832_melville.all.mb58.gz 31.93MB Kongsberg multibeam vendor format
1606_20110214_033817_melville.all.mb58.gz 32.33MB Kongsberg multibeam vendor format
1607_20110214_040825_melville.all.mb58.gz 32.17MB Kongsberg multibeam vendor format
1608_20110214_043822_melville.all.mb58.gz 32.53MB Kongsberg multibeam vendor format
1609_20110214_050843_melville.all.mb58.gz 31.94MB Kongsberg multibeam vendor format
1610_20110214_053831_melville.all.mb58.gz 32.03MB Kongsberg multibeam vendor format
1611_20110214_060819_melville.all.mb58.gz 32.08MB Kongsberg multibeam vendor format
1612_20110214_063815_melville.all.mb58.gz 32.67MB Kongsberg multibeam vendor format
1613_20110214_070842_melville.all.mb58.gz 32.35MB Kongsberg multibeam vendor format
1614_20110214_073850_melville.all.mb58.gz 31.78MB Kongsberg multibeam vendor format
1615_20110214_080825_melville.all.mb58.gz 31.94MB Kongsberg multibeam vendor format
1616_20110214_083816_melville.all.mb58.gz 32.50MB Kongsberg multibeam vendor format
1617_20110214_090833_melville.all.mb58.gz 32.36MB Kongsberg multibeam vendor format
1618_20110214_093843_melville.all.mb58.gz 31.95MB Kongsberg multibeam vendor format
1619_20110214_100833_melville.all.mb58.gz 32.15MB Kongsberg multibeam vendor format
1620_20110214_103820_melville.all.mb58.gz 32.44MB Kongsberg multibeam vendor format
1621_20110214_110823_melville.all.mb58.gz 32.28MB Kongsberg multibeam vendor format
1622_20110214_113828_melville.all.mb58.gz 32.72MB Kongsberg multibeam vendor format
1623_20110214_120844_melville.all.mb58.gz 31.80MB Kongsberg multibeam vendor format
1624_20110214_123821_melville.all.mb58.gz 32.74MB Kongsberg multibeam vendor format
1625_20110214_130846_melville.all.mb58.gz 31.89MB Kongsberg multibeam vendor format
1626_20110214_133822_melville.all.mb58.gz 32.52MB Kongsberg multibeam vendor format
1627_20110214_140832_melville.all.mb58.gz 32.28MB Kongsberg multibeam vendor format
1628_20110214_143816_melville.all.mb58.gz 32.71MB Kongsberg multibeam vendor format
1629_20110214_150831_melville.all.mb58.gz 32.31MB Kongsberg multibeam vendor format
1630_20110214_153825_melville.all.mb58.gz 32.51MB Kongsberg multibeam vendor format
1631_20110214_160834_melville.all.mb58.gz 32.54MB Kongsberg multibeam vendor format
1632_20110214_163846_melville.all.mb58.gz 32.08MB Kongsberg multibeam vendor format
1633_20110214_170835_melville.all.mb58.gz 32.02MB Kongsberg multibeam vendor format
1634_20110214_173820_melville.all.mb58.gz 32.39MB Kongsberg multibeam vendor format
1635_20110214_180825_melville.all.mb58.gz 32.26MB Kongsberg multibeam vendor format
1636_20110214_183822_melville.all.mb58.gz 32.50MB Kongsberg multibeam vendor format
1637_20110214_190830_melville.all.mb58.gz 32.51MB Kongsberg multibeam vendor format
1638_20110214_193837_melville.all.mb58.gz 32.43MB Kongsberg multibeam vendor format
1639_20110214_200841_melville.all.mb58.gz 31.90MB Kongsberg multibeam vendor format
1640_20110214_203818_melville.all.mb58.gz 32.59MB Kongsberg multibeam vendor format
1641_20110214_210833_melville.all.mb58.gz 32.42MB Kongsberg multibeam vendor format
1642_20110214_213843_melville.all.mb58.gz 31.95MB Kongsberg multibeam vendor format
1643_20110214_220818_melville.all.mb58.gz 32.04MB Kongsberg multibeam vendor format
1644_20110214_223816_melville.all.mb58.gz 32.80MB Kongsberg multibeam vendor format
1645_20110214_230835_melville.all.mb58.gz 32.29MB Kongsberg multibeam vendor format
1646_20110214_233834_melville.all.mb58.gz 31.98MB Kongsberg multibeam vendor format
1647_20110215_000817_melville.all.mb58.gz 32.82MB Kongsberg multibeam vendor format
1648_20110215_003839_melville.all.mb58.gz 32.36MB Kongsberg multibeam vendor format
1649_20110215_010839_melville.all.mb58.gz 32.14MB Kongsberg multibeam vendor format
1650_20110215_013834_melville.all.mb58.gz 32.27MB Kongsberg multibeam vendor format
1651_20110215_020826_melville.all.mb58.gz 32.36MB Kongsberg multibeam vendor format
1652_20110215_023823_melville.all.mb58.gz 32.38MB Kongsberg multibeam vendor format
1653_20110215_030816_melville.all.mb58.gz 32.53MB Kongsberg multibeam vendor format
1654_20110215_033818_melville.all.mb58.gz 32.91MB Kongsberg multibeam vendor format
1655_20110215_040833_melville.all.mb58.gz 32.55MB Kongsberg multibeam vendor format
1656_20110215_043830_melville.all.mb58.gz 32.70MB Kongsberg multibeam vendor format
1657_20110215_050842_melville.all.mb58.gz 32.41MB Kongsberg multibeam vendor format
1658_20110215_053837_melville.all.mb58.gz 32.30MB Kongsberg multibeam vendor format
1659_20110215_060815_melville.all.mb58.gz 33.09MB Kongsberg multibeam vendor format
1660_20110215_063834_melville.all.mb58.gz 32.76MB Kongsberg multibeam vendor format
1661_20110215_070833_melville.all.mb58.gz 32.67MB Kongsberg multibeam vendor format
1662_20110215_073821_melville.all.mb58.gz 33.03MB Kongsberg multibeam vendor format
1663_20110215_080827_melville.all.mb58.gz 32.86MB Kongsberg multibeam vendor format
1664_20110215_083818_melville.all.mb58.gz 33.11MB Kongsberg multibeam vendor format
1665_20110215_090820_melville.all.mb58.gz 33.44MB Kongsberg multibeam vendor format
1666_20110215_093838_melville.all.mb58.gz 32.83MB Kongsberg multibeam vendor format
1667_20110215_100819_melville.all.mb58.gz 33.53MB Kongsberg multibeam vendor format
1668_20110215_103828_melville.all.mb58.gz 33.39MB Kongsberg multibeam vendor format
1669_20110215_110817_melville.all.mb58.gz 33.99MB Kongsberg multibeam vendor format
1670_20110215_113827_melville.all.mb58.gz 33.74MB Kongsberg multibeam vendor format
1671_20110215_120819_melville.all.mb58.gz 34.13MB Kongsberg multibeam vendor format
1672_20110215_123817_melville.all.mb58.gz 34.43MB Kongsberg multibeam vendor format
1673_20110215_130816_melville.all.mb58.gz 34.99MB Kongsberg multibeam vendor format
1674_20110215_133830_melville.all.mb58.gz 34.62MB Kongsberg multibeam vendor format
1675_20110215_140823_melville.all.mb58.gz 34.93MB Kongsberg multibeam vendor format
1676_20110215_143818_melville.all.mb58.gz 35.41MB Kongsberg multibeam vendor format
1677_20110215_150823_melville.all.mb58.gz 35.46MB Kongsberg multibeam vendor format
1678_20110215_153813_melville.all.mb58.gz 36.42MB Kongsberg multibeam vendor format
1679_20110215_160817_melville.all.mb58.gz 37.67MB Kongsberg multibeam vendor format
1680_20110215_163812_melville.all.mb58.gz 43.85MB Kongsberg multibeam vendor format
1681_20110215_170813_melville.all.mb58.gz 43.94MB Kongsberg multibeam vendor format
1682_20110215_173820_melville.all.mb58.gz 44.54MB Kongsberg multibeam vendor format
1683_20110215_180818_melville.all.mb58.gz 45.94MB Kongsberg multibeam vendor format
1684_20110215_183816_melville.all.mb58.gz 47.43MB Kongsberg multibeam vendor format
1685_20110215_190821_melville.all.mb58.gz 50.19MB Kongsberg multibeam vendor format
1686_20110215_193819_melville.all.mb58.gz 52.81MB Kongsberg multibeam vendor format
1687_20110215_200819_melville.all.mb58.gz 58.66MB Kongsberg multibeam vendor format
1688_20110215_203812_melville.all.mb58.gz 64.51MB Kongsberg multibeam vendor format
1689_20110215_210814_melville.all.mb58.gz 71.82MB Kongsberg multibeam vendor format
1690_20110215_213812_melville.all.mb58.gz 76.08MB Kongsberg multibeam vendor format
1691_20110215_220813_melville.all.mb58.gz 78.22MB Kongsberg multibeam vendor format
1692_20110215_223812_melville.all.mb58.gz 81.51MB Kongsberg multibeam vendor format
1693_20110215_230812_melville.all.mb58.gz 84.59MB Kongsberg multibeam vendor format
1694_20110215_233813_melville.all.mb58.gz 87.68MB Kongsberg multibeam vendor format
1695_20110216_000813_melville.all.mb58.gz 90.66MB Kongsberg multibeam vendor format
1696_20110216_003813_melville.all.mb58.gz 93.66MB Kongsberg multibeam vendor format
1697_20110216_010812_melville.all.mb58.gz 94.35MB Kongsberg multibeam vendor format
1698_20110216_013813_melville.all.mb58.gz 91.64MB Kongsberg multibeam vendor format
1699_20110216_020812_melville.all.mb58.gz 107.94MB Kongsberg multibeam vendor format
1700_20110216_023812_melville.all.mb58.gz 123.81MB Kongsberg multibeam vendor format
1701_20110216_030812_melville.all.mb58.gz 135.86MB Kongsberg multibeam vendor format
1702_20110216_033812_melville.all.mb58.gz 159.87MB Kongsberg multibeam vendor format
1703_20110216_040812_melville.all.mb58.gz 173.60MB Kongsberg multibeam vendor format
1704_20110216_043811_melville.all.mb58.gz 163.18MB Kongsberg multibeam vendor format
1705_20110216_050811_melville.all.mb58.gz 64.24MB Kongsberg multibeam vendor format
1706_20110216_052451_melville.all.mb58.gz 15.57MB Kongsberg multibeam vendor format

Metadata Files: 3

Files File Size Description
MV1101_Multibeam.xml NGDC created ISO metadata
em122_bag_info.tar.gz 105.2KB Additional cruise information
xbt_bag_info.tar.gz 1.0KB Additional cruise information

Ancillary Files: 1

Files File Size Description
xbt.tar.gz 40.6KB Expendable Bathythermograph (XBT) data